Time,TemperatureF,DewpointF,PressureIn,WindDirection,WindDirectionDegrees,WindSpeedMPH,WindSpeedGustMPH,Humidity,HourlyPrecipIn,Conditions,Clouds,dailyrainin,SoftwareType,DateUTC
2013-07-22 00:00:00,79.8,72.3,29.85,SE,134,2.0,2.0,78,0.00,,,0.00,Wunderground v.1.15,2013-07-22 05:00:00,
2013-07-22 00:03:00,79.8,72.3,29.84,ESE,120,2.0,3.0,78,0.00,,,0.00,Wunderground v.1.15,2013-07-22 05:03:00,
2013-07-22 00:05:00,79.8,72.3,29.84,ESE,120,2.0,3.0,78,0.00,,,0.00,Wunderground v.1.15,2013-07-22 05:05:00,
2013-07-22 00:07:00,79.6,72.5,29.84,ESE,123,2.0,3.0,79,0.00,,,0.00,Wunderground v.1.15,2013-07-22 05:07:00,
2013-07-22 00:10:00,79.6,72.5,29.84,ESE,123,2.0,3.0,79,0.00,,,0.00,Wunderground v.1.15,2013-07-22 05:10:00,
2013-07-22 00:11:00,79.6,72.5,29.84,ESE,123,2.0,5.0,79,0.00,,,0.00,Wunderground v.1.15,2013-07-22 05:11:00,
2013-07-22 00:14:00,79.6,72.5,29.84,ESE,123,1.0,5.0,79,0.00,,,0.00,Wunderground v.1.15,2013-07-22 05:14:00,
2013-07-22 00:15:00,79.6,72.5,29.84,ESE,123,1.0,5.0,79,0.00,,,0.00,Wunderground v.1.15,2013-07-22 05:15:00,
2013-07-22 00:16:00,79.4,72.3,29.85,ESE,123,1.0,5.0,79,0.00,,,0.00,Wunderground v.1.15,2013-07-22 05:16:00,
2013-07-22 00:20:00,79.6,72.5,29.85,SSE,152,1.0,2.0,79,0.00,,,0.00,Wunderground v.1.15,2013-07-22 05:20:00,
2013-07-22 00:22:00,79.6,72.5,29.85,SE,130,2.0,7.0,79,0.00,,,0.00,Wunderground v.1.15,2013-07-22 05:22:00,
2013-07-22 00:25:00,79.4,72.3,29.85,SSE,160,3.0,7.0,79,0.00,,,0.00,Wunderground v.1.15,2013-07-22 05:25:00,
2013-07-22 00:28:00,79.4,72.7,29.85,SE,133,3.0,7.0,80,0.00,,,0.00,Wunderground v.1.15,2013-07-22 05:28:00,
2013-07-22 00:30:00,79.4,72.7,29.85,SE,144,3.0,3.0,80,0.00,,,0.00,Wunderground v.1.15,2013-07-22 05:30:00,
2013-07-22 00:31:00,79.4,72.7,29.85,SE,144,3.0,3.0,80,0.00,,,0.00,Wunderground v.1.15,2013-07-22 05:31:00,
2013-07-22 00:33:00,79.4,72.7,29.85,SE,144,2.0,3.0,80,0.00,,,0.00,Wunderground v.1.15,2013-07-22 05:33:00,
2013-07-22 00:36:00,79.4,72.7,29.85,SE,140,3.0,6.0,80,0.00,,,0.00,Wunderground v.1.15,2013-07-22 05:36:00,
2013-07-22 00:37:00,79.4,72.7,29.85,SE,141,2.0,6.0,80,0.00,,,0.00,Wunderground v.1.15,2013-07-22 05:37:00,
2013-07-22 00:38:00,79.4,73.1,29.85,SE,141,2.0,6.0,81,0.00,,,0.00,Wunderground v.1.15,2013-07-22 05:38:00,
2013-07-22 00:42:00,79.4,73.1,29.85,SE,144,4.0,11.0,81,0.00,,,0.00,Wunderground v.1.15,2013-07-22 05:42:00,
2013-07-22 00:44:00,79.4,73.1,29.85,East,95,5.0,11.0,81,0.00,,,0.00,Wunderground v.1.15,2013-07-22 05:44:00,
2013-07-22 00:47:00,79.2,72.9,29.85,ESE,110,4.0,11.0,81,0.00,,,0.00,Wunderground v.1.15,2013-07-22 05:47:00,
2013-07-22 00:48:00,79.2,72.9,29.85,ESE,116,4.0,11.0,81,0.00,,,0.00,Wunderground v.1.15,2013-07-22 05:48:00,
2013-07-22 00:50:00,79.2,73.2,29.85,SE,131,4.0,11.0,82,0.00,,,0.00,Wunderground v.1.15,2013-07-22 05:50:00,
2013-07-22 00:55:00,79.2,73.2,29.85,SE,126,3.0,6.0,82,0.00,,,0.00,Wunderground v.1.15,2013-07-22 05:55:00,
2013-07-22 00:57:00,79.2,73.2,29.85,SE,145,3.0,6.0,82,0.00,,,0.00,Wunderground v.1.15,2013-07-22 05:57:00,
2013-07-22 00:58:00,79.2,73.2,29.85,SE,134,3.0,6.0,82,0.00,,,0.00,Wunderground v.1.15,2013-07-22 05:58:00,
2013-07-22 01:02:00,79.2,73.2,29.84,South,182,3.0,6.0,82,0.00,,,0.00,Wunderground v.1.15,2013-07-22 06:02:00,
2013-07-22 01:03:00,79.2,73.2,29.84,SE,145,3.0,6.0,82,0.00,,,0.00,Wunderground v.1.15,2013-07-22 06:03:00,
2013-07-22 01:04:00,79.2,73.2,29.84,SE,144,3.0,6.0,82,0.00,,,0.00,Wunderground v.1.15,2013-07-22 06:04:00,
2013-07-22 01:07:00,79.2,73.2,29.84,SE,128,3.0,6.0,82,0.00,,,0.00,Wunderground v.1.15,2013-07-22 06:07:00,
2013-07-22 01:08:00,79.2,73.2,29.84,SE,130,3.0,6.0,82,0.00,,,0.00,Wunderground v.1.15,2013-07-22 06:08:00,
2013-07-22 01:10:00,79.2,73.2,29.84,SSE,165,2.0,4.0,82,0.00,,,0.00,Wunderground v.1.15,2013-07-22 06:10:00,
2013-07-22 01:11:00,79.2,73.2,29.84,SE,143,3.0,4.0,82,0.00,,,0.00,Wunderground v.1.15,2013-07-22 06:11:00,
2013-07-22 01:13:00,79.0,73.0,29.84,ESE,119,3.0,7.0,82,0.00,,,0.00,Wunderground v.1.15,2013-07-22 06:13:00,
2013-07-22 01:15:00,79.0,73.4,29.84,ESE,116,3.0,7.0,83,0.00,,,0.00,Wunderground v.1.15,2013-07-22 06:15:00,
2013-07-22 01:18:00,79.0,73.4,29.84,SE,138,3.0,7.0,83,0.00,,,0.00,Wunderground v.1.15,2013-07-22 06:18:00,
2013-07-22 01:20:00,79.0,73.4,29.84,SE,138,3.0,3.0,83,0.00,,,0.00,Wunderground v.1.15,2013-07-22 06:20:00,
2013-07-22 01:21:00,79.0,73.4,29.84,SE,134,3.0,6.0,83,0.00,,,0.00,Wunderground v.1.15,2013-07-22 06:21:00,
2013-07-22 01:22:00,79.0,73.4,29.84,SE,131,3.0,6.0,83,0.00,,,0.00,Wunderground v.1.15,2013-07-22 06:22:00,
2013-07-22 01:24:00,79.0,73.4,29.84,SE,144,2.0,6.0,83,0.00,,,0.00,Wunderground v.1.15,2013-07-22 06:24:00,
2013-07-22 01:26:00,79.0,73.4,29.84,ESE,123,3.0,6.0,83,0.00,,,0.00,Wunderground v.1.15,2013-07-22 06:26:00,
2013-07-22 01:28:00,79.0,73.7,29.84,SE,144,3.0,6.0,84,0.00,,,0.00,Wunderground v.1.15,2013-07-22 06:28:00,
2013-07-22 01:30:00,79.0,73.7,29.84,SE,145,3.0,3.0,84,0.00,,,0.00,Wunderground v.1.15,2013-07-22 06:30:00,
2013-07-22 01:32:00,79.0,73.7,29.84,SE,145,3.0,4.0,84,0.00,,,0.00,Wunderground v.1.15,2013-07-22 06:32:00,
2013-07-22 01:33:00,79.0,73.7,29.84,SE,124,3.0,9.0,84,0.00,,,0.00,Wunderground v.1.15,2013-07-22 06:33:00,
2013-07-22 01:35:00,78.8,73.6,29.84,ESE,116,3.0,9.0,84,0.00,,,0.00,Wunderground v.1.15,2013-07-22 06:35:00,
2013-07-22 01:38:00,78.8,73.6,29.84,South,172,4.0,9.0,84,0.00,,,0.00,Wunderground v.1.15,2013-07-22 06:38:00,
2013-07-22 01:40:00,78.8,73.6,29.84,SE,137,4.0,4.0,84,0.00,,,0.00,Wunderground v.1.15,2013-07-22 06:40:00,
2013-07-22 01:41:00,78.8,73.6,29.84,SSE,147,4.0,4.0,84,0.00,,,0.00,Wunderground v.1.15,2013-07-22 06:41:00,
2013-07-22 01:44:00,78.8,73.6,29.84,SE,138,4.0,5.0,84,0.00,,,0.00,Wunderground v.1.15,2013-07-22 06:44:00,
2013-07-22 01:46:00,78.8,73.6,29.84,SE,138,3.0,5.0,84,0.00,,,0.00,Wunderground v.1.15,2013-07-22 06:46:00,
2013-07-22 01:47:00,78.8,73.9,29.84,South,178,3.0,10.0,85,0.00,,,0.00,Wunderground v.1.15,2013-07-22 06:47:00,
2013-07-22 01:50:00,78.8,73.9,29.84,SSE,161,3.0,5.0,85,0.00,,,0.00,Wunderground v.1.15,2013-07-22 06:50:00,
2013-07-22 01:51:00,78.8,73.9,29.84,South,178,3.0,5.0,85,0.00,,,0.00,Wunderground v.1.15,2013-07-22 06:51:00,
2013-07-22 01:52:00,78.8,73.9,29.84,SE,141,3.0,5.0,85,0.00,,,0.00,Wunderground v.1.15,2013-07-22 06:52:00,
2013-07-22 01:53:00,78.8,73.9,29.84,SE,141,3.0,5.0,85,0.00,,,0.00,Wunderground v.1.15,2013-07-22 06:53:00,
2013-07-22 01:55:00,78.8,73.9,29.84,South,174,3.0,5.0,85,0.00,,,0.00,Wunderground v.1.15,2013-07-22 06:55:00,
2013-07-22 01:58:00,78.8,73.9,29.84,South,181,3.0,6.0,85,0.00,,,0.00,Wunderground v.1.15,2013-07-22 06:58:00,
2013-07-22 02:00:00,78.8,73.9,29.84,South,169,3.0,7.0,85,0.00,,,0.00,Wunderground v.1.15,2013-07-22 07:00:00,
2013-07-22 02:01:00,78.8,73.9,29.84,SE,141,3.0,7.0,85,0.00,,,0.00,Wunderground v.1.15,2013-07-22 07:01:00,
2013-07-22 02:03:00,78.8,73.9,29.84,SSE,151,3.0,7.0,85,0.00,,,0.00,Wunderground v.1.15,2013-07-22 07:03:00,
2013-07-22 02:04:00,78.8,73.9,29.84,SSE,151,3.0,7.0,85,0.00,,,0.00,Wunderground v.1.15,2013-07-22 07:04:00,
2013-07-22 02:05:00,78.8,73.9,29.84,SSW,199,3.0,8.0,85,0.00,,,0.00,Wunderground v.1.15,2013-07-22 07:05:00,
2013-07-22 02:07:00,78.6,73.7,29.84,SSE,157,3.0,8.0,85,0.00,,,0.00,Wunderground v.1.15,2013-07-22 07:07:00,
2013-07-22 02:10:00,78.6,73.7,29.84,ESE,119,4.0,7.0,85,0.00,,,0.00,Wunderground v.1.15,2013-07-22 07:10:00,
2013-07-22 02:12:00,78.6,73.7,29.84,SE,145,4.0,7.0,85,0.00,,,0.00,Wunderground v.1.15,2013-07-22 07:12:00,
2013-07-22 02:15:00,78.6,73.7,29.84,SSE,167,4.0,7.0,85,0.00,,,0.00,Wunderground v.1.15,2013-07-22 07:15:00,
2013-07-22 02:16:00,78.6,73.7,29.84,SSE,167,4.0,7.0,85,0.00,,,0.00,Wunderground v.1.15,2013-07-22 07:16:00,
2013-07-22 02:18:00,78.6,73.7,29.83,South,171,3.0,7.0,85,0.00,,,0.00,Wunderground v.1.15,2013-07-22 07:18:00,
2013-07-22 02:20:00,78.6,73.7,29.83,SSE,148,3.0,6.0,85,0.00,,,0.00,Wunderground v.1.15,2013-07-22 07:20:00,
2013-07-22 02:21:00,78.6,73.7,29.83,SE,143,3.0,7.0,85,0.00,,,0.00,Wunderground v.1.15,2013-07-22 07:21:00,
2013-07-22 02:23:00,78.6,73.7,29.83,South,181,4.0,7.0,85,0.00,,,0.00,Wunderground v.1.15,2013-07-22 07:23:00,
2013-07-22 02:25:00,78.5,74.0,29.83,SE,141,4.0,7.0,86,0.00,,,0.00,Wunderground v.1.15,2013-07-22 07:25:00,
2013-07-22 02:26:00,78.5,74.0,29.83,SSE,167,5.0,7.0,86,0.00,,,0.00,Wunderground v.1.15,2013-07-22 07:26:00,
2013-07-22 02:27:00,78.5,74.0,29.83,SSE,160,5.0,7.0,86,0.00,,,0.00,Wunderground v.1.15,2013-07-22 07:27:00,
2013-07-22 02:28:00,78.5,74.0,29.83,SSE,155,5.0,8.0,86,0.00,,,0.00,Wunderground v.1.15,2013-07-22 07:28:00,
2013-07-22 02:31:00,78.5,74.0,29.83,SSE,150,5.0,6.0,86,0.00,,,0.00,Wunderground v.1.15,2013-07-22 07:31:00,
2013-07-22 02:32:00,78.5,74.0,29.83,SE,138,5.0,6.0,86,0.00,,,0.00,Wunderground v.1.15,2013-07-22 07:32:00,
2013-07-22 02:36:00,78.5,74.0,29.83,SSE,161,4.0,6.0,86,0.00,,,0.00,Wunderground v.1.15,2013-07-22 07:36:00,
2013-07-22 02:38:00,78.5,74.0,29.83,SSE,168,4.0,10.0,86,0.00,,,0.00,Wunderground v.1.15,2013-07-22 07:38:00,
2013-07-22 02:40:00,78.3,73.8,29.83,SSE,155,4.0,4.0,86,0.00,,,0.00,Wunderground v.1.15,2013-07-22 07:40:00,
2013-07-22 02:45:00,78.3,73.8,29.83,South,174,4.0,8.0,86,0.00,,,0.00,Wunderground v.1.15,2013-07-22 07:45:00,
2013-07-22 02:47:00,78.3,73.8,29.82,SSE,154,5.0,8.0,86,0.00,,,0.00,Wunderground v.1.15,2013-07-22 07:47:00,
2013-07-22 02:48:00,78.3,73.8,29.82,South,175,4.0,8.0,86,0.00,,,0.00,Wunderground v.1.15,2013-07-22 07:48:00,
2013-07-22 02:50:00,78.3,73.8,29.82,South,176,5.0,10.0,86,0.00,,,0.00,Wunderground v.1.15,2013-07-22 07:50:00,
2013-07-22 02:52:00,78.3,73.8,29.82,SSE,165,4.0,10.0,86,0.00,,,0.00,Wunderground v.1.15,2013-07-22 07:52:00,
2013-07-22 02:53:00,78.1,73.6,29.82,South,191,5.0,10.0,86,0.00,,,0.00,Wunderground v.1.15,2013-07-22 07:53:00,
2013-07-22 02:54:00,78.1,73.6,29.82,SSE,147,5.0,10.0,86,0.00,,,0.00,Wunderground v.1.15,2013-07-22 07:54:00,
2013-07-22 02:56:00,78.1,73.6,29.82,ESE,112,5.0,10.0,86,0.00,,,0.00,Wunderground v.1.15,2013-07-22 07:56:00,
2013-07-22 02:58:00,78.1,73.9,29.82,South,188,5.0,10.0,87,0.00,,,0.00,Wunderground v.1.15,2013-07-22 07:58:00,
2013-07-22 03:01:00,78.1,73.9,29.82,SSE,150,4.0,5.0,87,0.00,,,0.00,Wunderground v.1.15,2013-07-22 08:01:00,
2013-07-22 03:02:00,78.1,73.9,29.82,SSE,158,4.0,5.0,87,0.00,,,0.00,Wunderground v.1.15,2013-07-22 08:02:00,
2013-07-22 03:03:00,78.1,73.9,29.82,SSE,158,3.0,5.0,87,0.00,,,0.00,Wunderground v.1.15,2013-07-22 08:03:00,
2013-07-22 03:06:00,78.1,73.9,29.82,South,171,3.0,6.0,87,0.00,,,0.00,Wunderground v.1.15,2013-07-22 08:06:00,
2013-07-22 03:07:00,78.1,73.9,29.82,SE,141,3.0,6.0,87,0.00,,,0.00,Wunderground v.1.15,2013-07-22 08:07:00,
2013-07-22 03:08:00,78.1,73.9,29.82,South,191,3.0,6.0,87,0.00,,,0.00,Wunderground v.1.15,2013-07-22 08:08:00,
2013-07-22 03:11:00,78.1,73.9,29.82,SSE,162,4.0,8.0,87,0.00,,,0.00,Wunderground v.1.15,2013-07-22 08:11:00,
2013-07-22 03:14:00,78.1,73.9,29.82,SSE,155,4.0,8.0,87,0.00,,,0.00,Wunderground v.1.15,2013-07-22 08:14:00,
2013-07-22 03:15:00,78.1,73.9,29.82,SSE,148,5.0,8.0,87,0.00,,,0.00,Wunderground v.1.15,2013-07-22 08:15:00,
2013-07-22 03:18:00,78.1,73.9,29.82,South,178,5.0,8.0,87,0.00,,,0.00,Wunderground v.1.15,2013-07-22 08:18:00,
2013-07-22 03:20:00,78.1,73.9,29.82,SSE,147,6.0,6.0,87,0.00,,,0.00,Wunderground v.1.15,2013-07-22 08:20:00,
2013-07-22 03:21:00,78.1,73.9,29.82,South,176,5.0,6.0,87,0.00,,,0.00,Wunderground v.1.15,2013-07-22 08:21:00,
2013-07-22 03:25:00,78.1,74.3,29.82,SE,140,5.0,7.0,88,0.00,,,0.00,Wunderground v.1.15,2013-07-22 08:25:00,
2013-07-22 03:27:00,78.1,73.9,29.82,SE,130,5.0,7.0,87,0.00,,,0.00,Wunderground v.1.15,2013-07-22 08:27:00,
2013-07-22 03:30:00,78.1,74.3,29.82,SE,136,4.0,4.0,88,0.00,,,0.00,Wunderground v.1.15,2013-07-22 08:30:00,
2013-07-22 03:32:00,78.1,74.3,29.83,SSE,148,4.0,6.0,88,0.00,,,0.00,Wunderground v.1.15,2013-07-22 08:32:00,
2013-07-22 03:35:00,78.1,74.3,29.83,South,174,4.0,11.0,88,0.00,,,0.00,Wunderground v.1.15,2013-07-22 08:35:00,
2013-07-22 03:36:00,78.1,74.3,29.83,SW,222,4.0,11.0,88,0.00,,,0.00,Wunderground v.1.15,2013-07-22 08:36:00,
2013-07-22 03:37:00,78.1,74.3,29.83,SE,138,4.0,11.0,88,0.00,,,0.00,Wunderground v.1.15,2013-07-22 08:37:00,
2013-07-22 03:41:00,78.1,74.3,29.83,SSE,147,4.0,4.0,88,0.00,,,0.00,Wunderground v.1.15,2013-07-22 08:41:00,
2013-07-22 03:45:00,78.1,74.3,29.83,SSE,152,3.0,7.0,88,0.00,,,0.00,Wunderground v.1.15,2013-07-22 08:45:00,
2013-07-22 03:46:00,78.1,74.3,29.83,SE,140,3.0,7.0,88,0.00,,,0.00,Wunderground v.1.15,2013-07-22 08:46:00,
2013-07-22 03:47:00,78.1,74.3,29.83,SSE,157,3.0,7.0,88,0.00,,,0.00,Wunderground v.1.15,2013-07-22 08:47:00,
2013-07-22 03:51:00,78.1,74.3,29.83,SSE,148,3.0,3.0,88,0.00,,,0.00,Wunderground v.1.15,2013-07-22 08:51:00,
2013-07-22 03:53:00,78.1,74.3,29.83,SSE,158,2.0,3.0,88,0.00,,,0.00,Wunderground v.1.15,2013-07-22 08:53:00,
2013-07-22 03:54:00,78.1,74.3,29.83,SSE,158,2.0,3.0,88,0.00,,,0.00,Wunderground v.1.15,2013-07-22 08:54:00,
2013-07-22 03:55:00,78.1,74.3,29.83,SE,143,2.0,4.0,88,0.00,,,0.00,Wunderground v.1.15,2013-07-22 08:55:00,
2013-07-22 04:00:00,78.1,73.9,29.83,SSE,167,3.0,3.0,87,0.00,,,0.00,Wunderground v.1.15,2013-07-22 09:00:00,
2013-07-22 04:01:00,78.1,73.9,29.83,SSE,154,3.0,4.0,87,0.00,,,0.00,Wunderground v.1.15,2013-07-22 09:01:00,
2013-07-22 04:03:00,78.1,73.9,29.83,SSW,202,4.0,10.0,87,0.00,,,0.00,Wunderground v.1.15,2013-07-22 09:03:00,
2013-07-22 04:04:00,78.1,73.9,29.83,South,186,4.0,10.0,87,0.00,,,0.00,Wunderground v.1.15,2013-07-22 09:04:00,
2013-07-22 04:08:00,78.1,73.9,29.83,South,178,5.0,10.0,87,0.00,,,0.00,Wunderground v.1.15,2013-07-22 09:08:00,
2013-07-22 04:10:00,78.1,73.9,29.83,SE,133,5.0,5.0,87,0.00,,,0.00,Wunderground v.1.15,2013-07-22 09:10:00,
2013-07-22 04:13:00,78.1,73.6,29.83,SW,227,6.0,7.0,86,0.00,,,0.00,Wunderground v.1.15,2013-07-22 09:13:00,
2013-07-22 04:14:00,78.1,73.6,29.83,SE,130,6.0,7.0,86,0.00,,,0.00,Wunderground v.1.15,2013-07-22 09:14:00,
2013-07-22 04:15:00,78.1,73.6,29.83,South,191,5.0,8.0,86,0.00,,,0.00,Wunderground v.1.15,2013-07-22 09:15:00,
2013-07-22 04:16:00,78.1,73.6,29.83,South,182,5.0,8.0,86,0.00,,,0.00,Wunderground v.1.15,2013-07-22 09:16:00,
2013-07-22 04:20:00,78.3,73.8,29.83,South,191,5.0,5.0,86,0.00,,,0.00,Wunderground v.1.15,2013-07-22 09:20:00,
2013-07-22 04:21:00,78.3,73.8,29.83,SW,220,5.0,5.0,86,0.00,,,0.00,Wunderground v.1.15,2013-07-22 09:21:00,
2013-07-22 04:25:00,78.3,73.8,29.83,ESE,113,5.0,10.0,86,0.00,,,0.00,Wunderground v.1.15,2013-07-22 09:25:00,
2013-07-22 04:27:00,78.3,73.8,29.83,South,176,4.0,10.0,86,0.00,,,0.00,Wunderground v.1.15,2013-07-22 09:27:00,
2013-07-22 04:28:00,78.3,73.8,29.83,South,181,4.0,10.0,86,0.00,,,0.00,Wunderground v.1.15,2013-07-22 09:28:00,
2013-07-22 04:30:00,78.3,73.8,29.83,SSW,203,4.0,4.0,86,0.00,,,0.00,Wunderground v.1.15,2013-07-22 09:30:00,
2013-07-22 04:31:00,78.3,73.8,29.83,SSW,202,4.0,4.0,86,0.00,,,0.00,Wunderground v.1.15,2013-07-22 09:31:00,
2013-07-22 04:32:00,78.3,73.8,29.83,SSW,212,4.0,4.0,86,0.00,,,0.00,Wunderground v.1.15,2013-07-22 09:32:00,
2013-07-22 04:36:00,78.3,73.8,29.83,SW,217,3.0,6.0,86,0.00,,,0.00,Wunderground v.1.15,2013-07-22 09:36:00,
2013-07-22 04:38:00,78.3,73.8,29.83,ESE,112,3.0,6.0,86,0.00,,,0.00,Wunderground v.1.15,2013-07-22 09:38:00,
2013-07-22 04:40:00,78.3,73.8,29.83,South,179,3.0,6.0,86,0.00,,,0.00,Wunderground v.1.15,2013-07-22 09:40:00,
2013-07-22 04:43:00,78.1,73.9,29.83,South,176,3.0,7.0,87,0.00,,,0.00,Wunderground v.1.15,2013-07-22 09:43:00,
2013-07-22 04:46:00,78.1,73.9,29.83,SW,215,3.0,9.0,87,0.00,,,0.00,Wunderground v.1.15,2013-07-22 09:46:00,
2013-07-22 04:47:00,78.1,73.9,29.83,South,188,3.0,9.0,87,0.00,,,0.00,Wunderground v.1.15,2013-07-22 09:47:00,
2013-07-22 04:48:00,78.1,73.9,29.83,South,186,3.0,9.0,87,0.00,,,0.00,Wunderground v.1.15,2013-07-22 09:48:00,
2013-07-22 04:51:00,78.1,73.9,29.83,SSE,161,2.0,3.0,87,0.00,,,0.00,Wunderground v.1.15,2013-07-22 09:51:00,
2013-07-22 04:52:00,78.3,74.1,29.83,South,179,3.0,3.0,87,0.00,,,0.00,Wunderground v.1.15,2013-07-22 09:52:00,
2013-07-22 04:54:00,78.1,73.9,29.83,SW,230,4.0,6.0,87,0.00,,,0.00,Wunderground v.1.15,2013-07-22 09:54:00,
2013-07-22 04:56:00,78.1,73.9,29.83,South,185,4.0,6.0,87,0.00,,,0.00,Wunderground v.1.15,2013-07-22 09:56:00,
2013-07-22 04:57:00,78.1,73.9,29.83,South,189,4.0,6.0,87,0.00,,,0.00,Wunderground v.1.15,2013-07-22 09:57:00,
2013-07-22 04:58:00,78.1,73.9,29.83,South,191,4.0,6.0,87,0.00,,,0.00,Wunderground v.1.15,2013-07-22 09:58:00,
2013-07-22 05:01:00,78.1,73.9,29.83,South,191,4.0,6.0,87,0.00,,,0.00,Wunderground v.1.15,2013-07-22 10:01:00,
2013-07-22 05:02:00,78.1,73.9,29.83,SSE,161,4.0,6.0,87,0.00,,,0.00,Wunderground v.1.15,2013-07-22 10:02:00,
2013-07-22 05:03:00,78.1,73.9,29.83,South,186,4.0,6.0,87,0.00,,,0.00,Wunderground v.1.15,2013-07-22 10:03:00,
2013-07-22 05:06:00,77.9,73.7,29.83,South,174,4.0,7.0,87,0.00,,,0.00,Wunderground v.1.15,2013-07-22 10:06:00,
2013-07-22 05:08:00,77.9,73.7,29.83,SSW,209,4.0,7.0,87,0.00,,,0.00,Wunderground v.1.15,2013-07-22 10:08:00,
2013-07-22 05:10:00,77.9,74.1,29.83,South,184,4.0,7.0,88,0.00,,,0.00,Wunderground v.1.15,2013-07-22 10:10:00,
2013-07-22 05:12:00,77.9,74.1,29.83,South,175,4.0,7.0,88,0.00,,,0.00,Wunderground v.1.15,2013-07-22 10:12:00,
2013-07-22 05:15:00,77.9,74.1,29.83,South,172,3.0,7.0,88,0.00,,,0.00,Wunderground v.1.15,2013-07-22 10:15:00,
2013-07-22 05:16:00,77.9,74.1,29.83,South,171,3.0,7.0,88,0.00,,,0.00,Wunderground v.1.15,2013-07-22 10:16:00,
2013-07-22 05:18:00,77.9,73.7,29.83,South,181,4.0,7.0,87,0.00,,,0.00,Wunderground v.1.15,2013-07-22 10:18:00,
2013-07-22 05:20:00,77.9,73.7,29.83,SSE,160,4.0,7.0,87,0.00,,,0.00,Wunderground v.1.15,2013-07-22 10:20:00,
2013-07-22 05:22:00,77.9,73.7,29.83,South,191,4.0,8.0,87,0.00,,,0.00,Wunderground v.1.15,2013-07-22 10:22:00,
2013-07-22 05:23:00,77.9,74.1,29.83,SW,223,5.0,8.0,88,0.00,,,0.00,Wunderground v.1.15,2013-07-22 10:23:00,
2013-07-22 05:24:00,77.9,73.7,29.83,South,178,5.0,8.0,87,0.00,,,0.00,Wunderground v.1.15,2013-07-22 10:24:00,
2013-07-22 05:25:00,77.9,74.1,29.83,SSW,198,5.0,8.0,88,0.00,,,0.00,Wunderground v.1.15,2013-07-22 10:25:00,
2013-07-22 05:28:00,77.9,74.1,29.83,SE,124,5.0,8.0,88,0.00,,,0.00,Wunderground v.1.15,2013-07-22 10:28:00,
2013-07-22 05:31:00,77.9,74.1,29.83,South,172,5.0,7.0,88,0.00,,,0.00,Wunderground v.1.15,2013-07-22 10:31:00,
2013-07-22 05:32:00,77.9,74.1,29.83,SE,145,5.0,7.0,88,0.00,,,0.00,Wunderground v.1.15,2013-07-22 10:32:00,
2013-07-22 05:37:00,77.9,73.7,29.83,South,179,5.0,12.0,87,0.00,,,0.00,Wunderground v.1.15,2013-07-22 10:37:00,
2013-07-22 05:38:00,77.9,73.7,29.83,SSE,158,5.0,12.0,87,0.00,,,0.00,Wunderground v.1.15,2013-07-22 10:38:00,
2013-07-22 05:40:00,77.9,73.7,29.83,SW,217,6.0,6.0,87,0.00,,,0.00,Wunderground v.1.15,2013-07-22 10:40:00,
2013-07-22 05:43:00,77.9,73.7,29.83,SE,145,5.0,6.0,87,0.00,,,0.00,Wunderground v.1.15,2013-07-22 10:43:00,
2013-07-22 05:44:00,77.9,73.7,29.83,South,181,5.0,6.0,87,0.00,,,0.00,Wunderground v.1.15,2013-07-22 10:44:00,
2013-07-22 05:45:00,77.9,73.7,29.83,South,185,5.0,6.0,87,0.00,,,0.00,Wunderground v.1.15,2013-07-22 10:45:00,
2013-07-22 05:48:00,77.9,73.7,29.83,South,179,4.0,6.0,87,0.00,,,0.00,Wunderground v.1.15,2013-07-22 10:48:00,
2013-07-22 05:50:00,77.9,73.7,29.83,South,191,4.0,7.0,87,0.00,,,0.00,Wunderground v.1.15,2013-07-22 10:50:00,
2013-07-22 05:51:00,77.9,73.7,29.83,South,186,3.0,7.0,87,0.00,,,0.00,Wunderground v.1.15,2013-07-22 10:51:00,
2013-07-22 05:52:00,77.9,73.7,29.83,South,186,3.0,7.0,87,0.00,,,0.00,Wunderground v.1.15,2013-07-22 10:52:00,
2013-07-22 05:55:00,77.9,73.7,29.83,SSE,155,2.0,7.0,87,0.00,,,0.00,Wunderground v.1.15,2013-07-22 10:55:00,
2013-07-22 05:56:00,77.9,73.7,29.83,SSE,165,2.0,7.0,87,0.00,,,0.00,Wunderground v.1.15,2013-07-22 10:56:00,
2013-07-22 05:57:00,77.9,73.7,29.83,South,179,2.0,7.0,87,0.00,,,0.00,Wunderground v.1.15,2013-07-22 10:57:00,
2013-07-22 06:00:00,77.9,73.7,29.83,South,189,2.0,4.0,87,0.00,,,0.00,Wunderground v.1.15,2013-07-22 11:00:00,
2013-07-22 06:01:00,77.9,73.7,29.83,South,174,2.0,5.0,87,0.00,,,0.00,Wunderground v.1.15,2013-07-22 11:01:00,
2013-07-22 06:02:00,77.9,73.7,29.83,South,174,3.0,5.0,87,0.00,,,0.00,Wunderground v.1.15,2013-07-22 11:02:00,
2013-07-22 06:04:00,77.9,73.7,29.83,SSE,154,3.0,5.0,87,0.00,,,0.00,Wunderground v.1.15,2013-07-22 11:04:00,
2013-07-22 06:07:00,77.9,73.7,29.83,SSE,168,4.0,10.0,87,0.00,,,0.00,Wunderground v.1.15,2013-07-22 11:07:00,
2013-07-22 06:08:00,77.9,73.7,29.83,South,169,4.0,10.0,87,0.00,,,0.00,Wunderground v.1.15,2013-07-22 11:08:00,
2013-07-22 06:10:00,77.9,73.7,29.83,SE,138,4.0,4.0,87,0.00,,,0.00,Wunderground v.1.15,2013-07-22 11:10:00,
2013-07-22 06:12:00,77.9,73.7,29.83,SE,145,4.0,7.0,87,0.00,,,0.00,Wunderground v.1.15,2013-07-22 11:12:00,
2013-07-22 06:13:00,77.9,73.7,29.83,South,184,5.0,7.0,87,0.00,,,0.00,Wunderground v.1.15,2013-07-22 11:13:00,
2013-07-22 06:16:00,77.9,73.7,29.84,SSE,161,4.0,7.0,87,0.00,,,0.00,Wunderground v.1.15,2013-07-22 11:16:00,
2013-07-22 06:18:00,77.9,73.7,29.84,SSE,162,3.0,7.0,87,0.00,,,0.00,Wunderground v.1.15,2013-07-22 11:18:00,
2013-07-22 06:20:00,77.9,73.7,29.84,South,172,2.0,6.0,87,0.00,,,0.00,Wunderground v.1.15,2013-07-22 11:20:00,
2013-07-22 06:21:00,77.9,73.7,29.84,SE,133,2.0,6.0,87,0.00,,,0.00,Wunderground v.1.15,2013-07-22 11:21:00,
2013-07-22 06:22:00,77.9,73.7,29.84,SE,141,2.0,6.0,87,0.00,,,0.00,Wunderground v.1.15,2013-07-22 11:22:00,
2013-07-22 06:25:00,77.9,73.7,29.84,South,169,2.0,7.0,87,0.00,,,0.00,Wunderground v.1.15,2013-07-22 11:25:00,
2013-07-22 06:27:00,77.9,73.7,29.84,SSE,160,2.0,7.0,87,0.00,,,0.00,Wunderground v.1.15,2013-07-22 11:27:00,
2013-07-22 06:30:00,77.9,73.7,29.84,South,179,3.0,5.0,87,0.00,,,0.00,Wunderground v.1.15,2013-07-22 11:30:00,
2013-07-22 06:31:00,77.9,73.7,29.84,South,181,3.0,5.0,87,0.00,,,0.00,Wunderground v.1.15,2013-07-22 11:31:00,
2013-07-22 06:32:00,77.9,73.7,29.84,South,182,3.0,5.0,87,0.00,,,0.00,Wunderground v.1.15,2013-07-22 11:32:00,
2013-07-22 06:37:00,77.9,73.7,29.84,SSE,158,3.0,6.0,87,0.00,,,0.00,Wunderground v.1.15,2013-07-22 11:37:00,
2013-07-22 06:38:00,77.9,73.7,29.84,SSE,165,3.0,6.0,87,0.00,,,0.00,Wunderground v.1.15,2013-07-22 11:38:00,
2013-07-22 06:40:00,77.9,74.1,29.84,SSE,165,3.0,3.0,88,0.00,,,0.00,Wunderground v.1.15,2013-07-22 11:40:00,
2013-07-22 06:42:00,77.9,74.1,29.84,SSE,165,4.0,6.0,88,0.00,,,0.00,Wunderground v.1.15,2013-07-22 11:42:00,
2013-07-22 06:43:00,77.9,74.1,29.84,South,179,4.0,6.0,88,0.00,,,0.00,Wunderground v.1.15,2013-07-22 11:43:00,
2013-07-22 06:44:00,77.9,74.1,29.84,SSW,192,3.0,6.0,88,0.00,,,0.00,Wunderground v.1.15,2013-07-22 11:44:00,
2013-07-22 06:46:00,77.9,74.1,29.85,SSW,206,3.0,6.0,88,0.00,,,0.00,Wunderground v.1.15,2013-07-22 11:46:00,
2013-07-22 06:47:00,77.9,74.1,29.85,South,181,3.0,6.0,88,0.00,,,0.00,Wunderground v.1.15,2013-07-22 11:47:00,
2013-07-22 06:48:00,77.9,74.1,29.85,South,172,3.0,6.0,88,0.00,,,0.00,Wunderground v.1.15,2013-07-22 11:48:00,
2013-07-22 06:50:00,77.9,74.1,29.85,SE,131,3.0,3.0,88,0.00,,,0.00,Wunderground v.1.15,2013-07-22 11:50:00,
2013-07-22 06:52:00,77.9,74.1,29.85,South,172,3.0,3.0,88,0.00,,,0.00,Wunderground v.1.15,2013-07-22 11:52:00,
2013-07-22 06:53:00,77.9,74.1,29.85,SSE,158,3.0,3.0,88,0.00,,,0.00,Wunderground v.1.15,2013-07-22 11:53:00,
2013-07-22 07:00:00,77.7,73.9,29.85,South,178,3.0,3.0,88,0.00,,,0.00,Wunderground v.1.15,2013-07-22 12:00:00,
2013-07-22 07:02:00,77.7,73.9,29.85,SSE,162,3.0,6.0,88,0.00,,,0.00,Wunderground v.1.15,2013-07-22 12:02:00,
2013-07-22 07:05:00,77.7,73.9,29.85,South,175,4.0,6.0,88,0.00,,,0.00,Wunderground v.1.15,2013-07-22 12:05:00,
2013-07-22 07:06:00,77.7,73.9,29.85,SE,131,4.0,6.0,88,0.00,,,0.00,Wunderground v.1.15,2013-07-22 12:06:00,
2013-07-22 07:07:00,77.7,73.9,29.85,South,186,4.0,7.0,88,0.00,,,0.00,Wunderground v.1.15,2013-07-22 12:07:00,
2013-07-22 07:10:00,77.7,73.9,29.85,South,186,3.0,5.0,88,0.00,,,0.00,Wunderground v.1.15,2013-07-22 12:10:00,
2013-07-22 07:12:00,77.7,74.2,29.85,SSE,167,3.0,6.0,89,0.00,,,0.00,Wunderground v.1.15,2013-07-22 12:12:00,
2013-07-22 07:13:00,77.7,73.9,29.85,South,181,3.0,8.0,88,0.00,,,0.00,Wunderground v.1.15,2013-07-22 12:13:00,
2013-07-22 07:15:00,77.7,74.2,29.85,South,178,3.0,8.0,89,0.00,,,0.00,Wunderground v.1.15,2013-07-22 12:15:00,
2013-07-22 07:16:00,77.9,74.4,29.85,South,178,3.0,8.0,89,0.00,,,0.00,Wunderground v.1.15,2013-07-22 12:16:00,
2013-07-22 07:18:00,77.9,74.4,29.85,South,182,3.0,8.0,89,0.00,,,0.00,Wunderground v.1.15,2013-07-22 12:18:00,
2013-07-22 07:20:00,77.9,74.1,29.85,South,175,3.0,3.0,88,0.00,,,0.00,Wunderground v.1.15,2013-07-22 12:20:00,
2013-07-22 07:21:00,77.9,74.4,29.85,South,175,3.0,3.0,89,0.00,,,0.00,Wunderground v.1.15,2013-07-22 12:21:00,
2013-07-22 07:26:00,77.9,74.1,29.85,South,186,2.0,3.0,88,0.00,,,0.00,Wunderground v.1.15,2013-07-22 12:26:00,
2013-07-22 07:27:00,77.9,74.1,29.85,South,186,2.0,3.0,88,0.00,,,0.00,Wunderground v.1.15,2013-07-22 12:27:00,
2013-07-22 07:28:00,77.9,74.1,29.85,South,186,2.0,3.0,88,0.00,,,0.00,Wunderground v.1.15,2013-07-22 12:28:00,
2013-07-22 07:31:00,77.9,74.1,29.85,SE,144,1.0,3.0,88,0.00,,,0.00,Wunderground v.1.15,2013-07-22 12:31:00,
2013-07-22 07:32:00,77.9,74.1,29.85,SE,145,1.0,3.0,88,0.00,,,0.00,Wunderground v.1.15,2013-07-22 12:32:00,
2013-07-22 07:34:00,77.9,74.1,29.85,SSE,158,1.0,3.0,88,0.00,,,0.00,Wunderground v.1.15,2013-07-22 12:34:00,
2013-07-22 07:35:00,77.9,74.4,29.85,SSE,160,1.0,3.0,89,0.00,,,0.00,Wunderground v.1.15,2013-07-22 12:35:00,
2013-07-22 07:36:00,78.1,74.3,29.85,SSE,160,1.0,3.0,88,0.00,,,0.00,Wunderground v.1.15,2013-07-22 12:36:00,
2013-07-22 07:38:00,77.9,74.4,29.85,South,189,2.0,4.0,89,0.00,,,0.00,Wunderground v.1.15,2013-07-22 12:38:00,
2013-07-22 07:40:00,77.9,74.1,29.85,SSE,167,2.0,4.0,88,0.00,,,0.00,Wunderground v.1.15,2013-07-22 12:40:00,
2013-07-22 07:41:00,77.9,74.4,29.85,SE,137,2.0,5.0,89,0.00,,,0.00,Wunderground v.1.15,2013-07-22 12:41:00,
2013-07-22 07:42:00,77.9,74.4,29.85,SSE,152,3.0,5.0,89,0.00,,,0.00,Wunderground v.1.15,2013-07-22 12:42:00,
2013-07-22 07:44:00,78.1,74.6,29.85,SE,144,3.0,5.0,89,0.00,,,0.00,Wunderground v.1.15,2013-07-22 12:44:00,
2013-07-22 07:45:00,78.1,74.6,29.85,SSE,157,3.0,5.0,89,0.00,,,0.00,Wunderground v.1.15,2013-07-22 12:45:00,
2013-07-22 07:46:00,78.1,74.6,29.86,SSE,157,3.0,5.0,89,0.00,,,0.00,Wunderground v.1.15,2013-07-22 12:46:00,
2013-07-22 07:48:00,77.9,74.4,29.86,SSW,195,3.0,8.0,89,0.00,,,0.00,Wunderground v.1.15,2013-07-22 12:48:00,
2013-07-22 07:52:00,78.1,74.6,29.86,South,189,3.0,6.0,89,0.00,,,0.00,Wunderground v.1.15,2013-07-22 12:52:00,
2013-07-22 07:53:00,78.1,74.6,29.86,South,185,3.0,6.0,89,0.00,,,0.00,Wunderground v.1.15,2013-07-22 12:53:00,
2013-07-22 07:55:00,78.1,74.6,29.86,South,186,3.0,6.0,89,0.00,,,0.00,Wunderground v.1.15,2013-07-22 12:55:00,
2013-07-22 07:58:00,78.1,74.6,29.86,SSE,161,3.0,6.0,89,0.00,,,0.00,Wunderground v.1.15,2013-07-22 12:58:00,
2013-07-22 08:02:00,78.1,74.6,29.86,SE,137,3.0,6.0,89,0.00,,,0.00,Wunderground v.1.15,2013-07-22 13:02:00,
2013-07-22 08:03:00,78.1,74.6,29.86,SE,141,3.0,7.0,89,0.00,,,0.00,Wunderground v.1.15,2013-07-22 13:03:00,
2013-07-22 08:04:00,77.9,74.4,29.86,SE,143,3.0,7.0,89,0.00,,,0.00,Wunderground v.1.15,2013-07-22 13:04:00,
2013-07-22 08:05:00,77.9,74.4,29.86,SE,143,3.0,7.0,89,0.00,,,0.00,Wunderground v.1.15,2013-07-22 13:05:00,
2013-07-22 08:06:00,77.9,74.4,29.86,SSE,168,3.0,7.0,89,0.00,,,0.00,Wunderground v.1.15,2013-07-22 13:06:00,
2013-07-22 08:07:00,77.9,74.4,29.86,SSE,167,3.0,7.0,89,0.00,,,0.00,Wunderground v.1.15,2013-07-22 13:07:00,
2013-07-22 08:11:00,77.9,74.4,29.86,SSE,164,3.0,4.0,89,0.00,,,0.00,Wunderground v.1.15,2013-07-22 13:11:00,
2013-07-22 08:13:00,77.9,74.4,29.86,SW,215,3.0,4.0,89,0.00,,,0.00,Wunderground v.1.15,2013-07-22 13:13:00,
2013-07-22 08:14:00,77.9,74.4,29.86,SSE,164,3.0,5.0,89,0.00,,,0.00,Wunderground v.1.15,2013-07-22 13:14:00,
2013-07-22 08:15:00,77.9,74.4,29.86,SSE,165,3.0,5.0,89,0.00,,,0.00,Wunderground v.1.15,2013-07-22 13:15:00,
2013-07-22 08:17:00,78.1,74.6,29.87,SSE,165,3.0,5.0,89,0.00,,,0.00,Wunderground v.1.15,2013-07-22 13:17:00,
2013-07-22 08:18:00,78.1,74.6,29.87,SSE,168,3.0,5.0,89,0.00,,,0.00,Wunderground v.1.15,2013-07-22 13:18:00,
2013-07-22 08:20:00,77.9,74.4,29.87,SE,124,3.0,5.0,89,0.00,,,0.00,Wunderground v.1.15,2013-07-22 13:20:00,
2013-07-22 08:23:00,77.9,74.4,29.87,SSW,200,4.0,8.0,89,0.00,,,0.00,Wunderground v.1.15,2013-07-22 13:23:00,
2013-07-22 08:24:00,78.1,74.6,29.87,SE,143,4.0,8.0,89,0.00,,,0.00,Wunderground v.1.15,2013-07-22 13:24:00,
2013-07-22 08:25:00,78.1,74.6,29.87,South,185,4.0,8.0,89,0.00,,,0.00,Wunderground v.1.15,2013-07-22 13:25:00,
2013-07-22 08:30:00,78.1,74.6,29.87,SE,143,4.0,8.0,89,0.00,,,0.00,Wunderground v.1.15,2013-07-22 13:30:00,
2013-07-22 08:31:00,78.3,74.8,29.87,South,171,3.0,6.0,89,0.00,,,0.00,Wunderground v.1.15,2013-07-22 13:31:00,
2013-07-22 08:32:00,78.3,74.8,29.87,SE,137,3.0,6.0,89,0.00,,,0.00,Wunderground v.1.15,2013-07-22 13:32:00,
2013-07-22 08:35:00,78.3,74.5,29.87,South,184,3.0,6.0,88,0.00,,,0.00,Wunderground v.1.15,2013-07-22 13:35:00,
2013-07-22 08:37:00,78.3,74.5,29.87,SSE,154,3.0,6.0,88,0.00,,,0.00,Wunderground v.1.15,2013-07-22 13:37:00,
2013-07-22 08:38:00,78.5,74.6,29.87,SE,144,3.0,6.0,88,0.00,,,0.00,Wunderground v.1.15,2013-07-22 13:38:00,
2013-07-22 08:40:00,78.5,74.6,29.87,South,186,4.0,6.0,88,0.00,,,0.00,Wunderground v.1.15,2013-07-22 13:40:00,
2013-07-22 08:41:00,78.6,74.7,29.87,SE,134,4.0,7.0,88,0.00,,,0.00,Wunderground v.1.15,2013-07-22 13:41:00,
2013-07-22 08:44:00,78.6,74.4,29.87,WSW,241,4.0,7.0,87,0.00,,,0.00,Wunderground v.1.15,2013-07-22 13:44:00,
2013-07-22 08:45:00,78.6,74.1,29.87,South,191,4.0,7.0,86,0.00,,,0.00,Wunderground v.1.15,2013-07-22 13:45:00,
2013-07-22 08:46:00,78.6,74.1,29.87,SSE,168,5.0,7.0,86,0.00,,,0.00,Wunderground v.1.15,2013-07-22 13:46:00,
2013-07-22 08:50:00,78.8,74.3,29.87,South,185,5.0,5.0,86,0.00,,,0.00,Wunderground v.1.15,2013-07-22 13:50:00,
2013-07-22 08:51:00,79.0,74.5,29.87,South,191,5.0,7.0,86,0.00,,,0.00,Wunderground v.1.15,2013-07-22 13:51:00,
2013-07-22 08:52:00,79.0,74.5,29.87,South,175,5.0,7.0,86,0.00,,,0.00,Wunderground v.1.15,2013-07-22 13:52:00,
2013-07-22 08:53:00,79.2,74.6,29.87,South,175,4.0,10.0,86,0.00,,,0.00,Wunderground v.1.15,2013-07-22 13:53:00,
2013-07-22 08:57:00,79.4,74.5,29.87,South,172,4.0,10.0,85,0.00,,,0.00,Wunderground v.1.15,2013-07-22 13:57:00,
2013-07-22 08:58:00,79.4,74.5,29.87,SSW,200,4.0,10.0,85,0.00,,,0.00,Wunderground v.1.15,2013-07-22 13:58:00,
2013-07-22 09:00:00,79.6,74.3,29.87,South,178,4.0,5.0,84,0.00,,,0.00,Wunderground v.1.15,2013-07-22 14:00:00,
2013-07-22 09:02:00,79.8,74.5,29.87,SSE,167,5.0,12.0,84,0.00,,,0.00,Wunderground v.1.15,2013-07-22 14:02:00,
2013-07-22 09:04:00,79.8,74.2,29.87,South,191,6.0,12.0,83,0.00,,,0.00,Wunderground v.1.15,2013-07-22 14:04:00,
2013-07-22 09:05:00,79.8,74.2,29.87,SSW,192,6.0,12.0,83,0.00,,,0.00,Wunderground v.1.15,2013-07-22 14:05:00,
2013-07-22 09:06:00,79.8,73.8,29.87,South,176,6.0,12.0,82,0.00,,,0.00,Wunderground v.1.15,2013-07-22 14:06:00,
2013-07-22 09:07:00,79.8,73.8,29.87,SSE,164,6.0,12.0,82,0.00,,,0.00,Wunderground v.1.15,2013-07-22 14:07:00,
2013-07-22 09:10:00,79.9,73.9,29.87,SSW,193,6.0,6.0,82,0.00,,,0.00,Wunderground v.1.15,2013-07-22 14:10:00,
2013-07-22 09:11:00,79.9,73.9,29.87,South,178,6.0,8.0,82,0.00,,,0.00,Wunderground v.1.15,2013-07-22 14:11:00,
2013-07-22 09:13:00,79.9,73.9,29.87,South,178,5.0,10.0,82,0.00,,,0.00,Wunderground v.1.15,2013-07-22 14:13:00,
2013-07-22 09:15:00,80.1,74.1,29.87,SSE,164,6.0,11.0,82,0.00,,,0.00,Wunderground v.1.15,2013-07-22 14:15:00,
2013-07-22 09:18:00,80.1,74.1,29.87,SSW,202,5.0,11.0,82,0.00,,,0.00,Wunderground v.1.15,2013-07-22 14:18:00,
2013-07-22 09:19:00,80.1,74.1,29.87,SE,134,5.0,11.0,82,0.00,,,0.00,Wunderground v.1.15,2013-07-22 14:19:00,
2013-07-22 09:21:00,80.1,73.7,29.87,SE,134,5.0,5.0,81,0.00,,,0.00,Wunderground v.1.15,2013-07-22 14:21:00,
2013-07-22 09:23:00,80.1,73.7,29.87,South,182,5.0,12.0,81,0.00,,,0.00,Wunderground v.1.15,2013-07-22 14:23:00,
2013-07-22 09:26:00,80.3,73.9,29.87,South,171,5.0,12.0,81,0.00,,,0.00,Wunderground v.1.15,2013-07-22 14:26:00,
2013-07-22 09:29:00,80.3,73.6,29.87,South,176,6.0,6.0,80,0.00,,,0.00,Wunderground v.1.15,2013-07-22 14:29:00,
2013-07-22 09:30:00,80.3,73.6,29.87,South,185,6.0,7.0,80,0.00,,,0.00,Wunderground v.1.15,2013-07-22 14:30:00,
2013-07-22 09:31:00,80.3,73.6,29.87,SSE,152,6.0,7.0,80,0.00,,,0.00,Wunderground v.1.15,2013-07-22 14:31:00,
2013-07-22 09:34:00,80.7,74.0,29.87,South,191,6.0,7.0,80,0.00,,,0.00,Wunderground v.1.15,2013-07-22 14:34:00,
2013-07-22 09:35:00,80.7,74.0,29.87,SSW,193,6.0,7.0,80,0.00,,,0.00,Wunderground v.1.15,2013-07-22 14:35:00,
2013-07-22 09:36:00,80.9,74.1,29.87,SSW,192,6.0,7.0,80,0.00,,,0.00,Wunderground v.1.15,2013-07-22 14:36:00,
2013-07-22 09:37:00,80.9,73.8,29.87,SW,217,6.0,7.0,79,0.00,,,0.00,Wunderground v.1.15,2013-07-22 14:37:00,
2013-07-22 09:41:00,80.9,73.8,29.87,SSW,203,6.0,9.0,79,0.00,,,0.00,Wunderground v.1.15,2013-07-22 14:41:00,
2013-07-22 09:42:00,80.9,73.8,29.87,SSW,195,6.0,9.0,79,0.00,,,0.00,Wunderground v.1.15,2013-07-22 14:42:00,
2013-07-22 09:43:00,81.1,74.0,29.87,South,186,6.0,9.0,79,0.00,,,0.00,Wunderground v.1.15,2013-07-22 14:43:00,
2013-07-22 09:45:00,81.4,73.5,29.87,SSW,192,5.0,9.0,77,0.00,,,0.00,Wunderground v.1.15,2013-07-22 14:45:00,
2013-07-22 09:46:00,81.4,73.5,29.87,SE,127,6.0,9.0,77,0.00,,,0.00,Wunderground v.1.15,2013-07-22 14:46:00,
2013-07-22 09:47:00,81.2,73.3,29.87,SE,134,6.0,9.0,77,0.00,,,0.00,Wunderground v.1.15,2013-07-22 14:47:00,
2013-07-22 09:49:00,81.4,73.5,29.87,SSW,193,6.0,7.0,77,0.00,,,0.00,Wunderground v.1.15,2013-07-22 14:49:00,
2013-07-22 09:50:00,81.4,73.5,29.87,SSW,192,6.0,13.0,77,0.00,,,0.00,Wunderground v.1.15,2013-07-22 14:50:00,
2013-07-22 09:51:00,81.4,73.5,29.87,SSW,196,6.0,13.0,77,0.00,,,0.00,Wunderground v.1.15,2013-07-22 14:51:00,
2013-07-22 09:52:00,81.4,73.5,29.87,SSW,198,6.0,13.0,77,0.00,,,0.00,Wunderground v.1.15,2013-07-22 14:52:00,
2013-07-22 09:54:00,81.6,73.3,29.87,SSE,168,7.0,13.0,76,0.00,,,0.00,Wunderground v.1.15,2013-07-22 14:54:00,
2013-07-22 09:56:00,81.6,73.3,29.87,South,172,7.0,13.0,76,0.00,,,0.00,Wunderground v.1.15,2013-07-22 14:56:00,
2013-07-22 09:57:00,81.6,73.3,29.87,South,191,7.0,13.0,76,0.00,,,0.00,Wunderground v.1.15,2013-07-22 14:57:00,
2013-07-22 09:59:00,81.6,72.9,29.87,South,172,8.0,8.0,75,0.00,,,0.00,Wunderground v.1.15,2013-07-22 14:59:00,
2013-07-22 10:02:00,81.6,72.9,29.86,SSE,151,8.0,12.0,75,0.00,,,0.00,Wunderground v.1.15,2013-07-22 15:02:00,
2013-07-22 10:04:00,81.8,73.1,29.86,South,185,7.0,12.0,75,0.00,,,0.00,Wunderground v.1.15,2013-07-22 15:04:00,
2013-07-22 10:07:00,82.2,73.1,29.86,SSW,195,6.0,12.0,74,0.00,,,0.00,Wunderground v.1.15,2013-07-22 15:07:00,
2013-07-22 10:09:00,82.4,73.7,29.86,South,186,6.0,6.0,75,0.00,,,0.00,Wunderground v.1.15,2013-07-22 15:09:00,
2013-07-22 10:11:00,82.4,72.9,29.86,SSE,160,6.0,10.0,73,0.00,,,0.00,Wunderground v.1.15,2013-07-22 15:11:00,
2013-07-22 10:12:00,82.4,73.3,29.86,SSW,196,6.0,10.0,74,0.00,,,0.00,Wunderground v.1.15,2013-07-22 15:12:00,
2013-07-22 10:14:00,82.4,73.3,29.86,SE,134,6.0,10.0,74,0.00,,,0.00,Wunderground v.1.15,2013-07-22 15:14:00,
2013-07-22 10:16:00,82.4,72.9,29.86,South,191,7.0,11.0,73,0.00,,,0.00,Wunderground v.1.15,2013-07-22 15:16:00,
2013-07-22 10:19:00,82.2,73.1,29.87,South,179,7.0,7.0,74,0.00,,,0.00,Wunderground v.1.15,2013-07-22 15:19:00,
2013-07-22 10:20:00,82.2,73.1,29.87,SSE,158,7.0,7.0,74,0.00,,,0.00,Wunderground v.1.15,2013-07-22 15:20:00,
2013-07-22 10:21:00,82.2,73.1,29.87,South,174,6.0,7.0,74,0.00,,,0.00,Wunderground v.1.15,2013-07-22 15:21:00,
2013-07-22 10:25:00,82.2,73.5,29.87,South,184,6.0,7.0,75,0.00,,,0.00,Wunderground v.1.15,2013-07-22 15:25:00,
2013-07-22 10:26:00,82.2,73.5,29.87,SSE,160,6.0,7.0,75,0.00,,,0.00,Wunderground v.1.15,2013-07-22 15:26:00,
2013-07-22 10:28:00,82.2,73.5,29.87,South,189,5.0,7.0,75,0.00,,,0.00,Wunderground v.1.15,2013-07-22 15:28:00,
2013-07-22 10:29:00,82.6,73.5,29.87,SSE,152,5.0,5.0,74,0.00,,,0.00,Wunderground v.1.15,2013-07-22 15:29:00,
2013-07-22 10:30:00,82.8,73.7,29.87,SSE,152,5.0,5.0,74,0.00,,,0.00,Wunderground v.1.15,2013-07-22 15:30:00,
2013-07-22 10:33:00,83.2,73.2,29.86,SSE,157,5.0,6.0,72,0.00,,,0.00,Wunderground v.1.15,2013-07-22 15:33:00,
2013-07-22 10:34:00,83.2,73.2,29.86,SE,136,5.0,6.0,72,0.00,,,0.00,Wunderground v.1.15,2013-07-22 15:34:00,
2013-07-22 10:38:00,83.4,73.0,29.86,South,181,5.0,8.0,71,0.00,,,0.00,Wunderground v.1.15,2013-07-22 15:38:00,
2013-07-22 10:39:00,83.4,73.0,29.86,SSE,167,5.0,8.0,71,0.00,,,0.00,Wunderground v.1.15,2013-07-22 15:39:00,
2013-07-22 10:42:00,83.8,73.4,29.86,SSE,164,6.0,11.0,71,0.00,,,0.00,Wunderground v.1.15,2013-07-22 15:42:00,
2013-07-22 10:44:00,83.8,73.4,29.86,WSW,248,6.0,11.0,71,0.00,,,0.00,Wunderground v.1.15,2013-07-22 15:44:00,
2013-07-22 10:46:00,83.8,73.4,29.86,SSW,212,5.0,11.0,71,0.00,,,0.00,Wunderground v.1.15,2013-07-22 15:46:00,
2013-07-22 10:49:00,83.8,73.8,29.86,SW,233,5.0,5.0,72,0.00,,,0.00,Wunderground v.1.15,2013-07-22 15:49:00,
2013-07-22 10:51:00,83.8,73.8,29.86,South,182,4.0,5.0,72,0.00,,,0.00,Wunderground v.1.15,2013-07-22 15:51:00,
2013-07-22 10:52:00,84.1,74.1,29.86,WSW,243,3.0,7.0,72,0.00,,,0.00,Wunderground v.1.15,2013-07-22 15:52:00,
2013-07-22 10:54:00,84.3,73.9,29.86,SSW,193,4.0,7.0,71,0.00,,,0.00,Wunderground v.1.15,2013-07-22 15:54:00,
2013-07-22 10:56:00,84.5,74.1,29.86,SSW,192,4.0,8.0,71,0.00,,,0.00,Wunderground v.1.15,2013-07-22 15:56:00,
2013-07-22 11:00:00,84.5,73.2,29.86,SE,131,5.0,9.0,69,0.00,,,0.00,Wunderground v.1.15,2013-07-22 16:00:00,
2013-07-22 11:01:00,84.5,73.2,29.86,SSW,198,5.0,9.0,69,0.00,,,0.00,Wunderground v.1.15,2013-07-22 16:01:00,
2013-07-22 11:04:00,84.7,73.0,29.86,SW,232,6.0,9.0,68,0.00,,,0.00,Wunderground v.1.15,2013-07-22 16:04:00,
2013-07-22 11:05:00,84.7,73.0,29.86,SW,216,6.0,11.0,68,0.00,,,0.00,Wunderground v.1.15,2013-07-22 16:05:00,
2013-07-22 11:06:00,84.7,73.0,29.86,SSW,210,7.0,11.0,68,0.00,,,0.00,Wunderground v.1.15,2013-07-22 16:06:00,
2013-07-22 11:07:00,84.7,73.4,29.86,SSW,192,7.0,11.0,69,0.00,,,0.00,Wunderground v.1.15,2013-07-22 16:07:00,
2013-07-22 11:09:00,84.7,73.4,29.86,WSW,237,7.0,7.0,69,0.00,,,0.00,Wunderground v.1.15,2013-07-22 16:09:00,
2013-07-22 11:10:00,84.7,73.4,29.86,SW,215,7.0,7.0,69,0.00,,,0.00,Wunderground v.1.15,2013-07-22 16:10:00,
2013-07-22 11:11:00,84.7,73.4,29.86,West,265,7.0,7.0,69,0.00,,,0.00,Wunderground v.1.15,2013-07-22 16:11:00,
2013-07-22 11:14:00,84.7,73.4,29.86,SSE,158,6.0,7.0,69,0.00,,,0.00,Wunderground v.1.15,2013-07-22 16:14:00,
2013-07-22 11:15:00,84.9,73.2,29.86,SE,140,6.0,8.0,68,0.00,,,0.00,Wunderground v.1.15,2013-07-22 16:15:00,
2013-07-22 11:16:00,84.9,72.7,29.86,SSE,164,5.0,8.0,67,0.00,,,0.00,Wunderground v.1.15,2013-07-22 16:16:00,
2013-07-22 11:20:00,85.1,72.9,29.86,SSW,199,6.0,7.0,67,0.00,,,0.00,Wunderground v.1.15,2013-07-22 16:20:00,
2013-07-22 11:21:00,85.3,73.1,29.86,SW,226,6.0,7.0,67,0.00,,,0.00,Wunderground v.1.15,2013-07-22 16:21:00,
2013-07-22 11:22:00,85.5,72.8,29.86,SSE,147,5.0,7.0,66,0.00,,,0.00,Wunderground v.1.15,2013-07-22 16:22:00,
2013-07-22 11:24:00,85.7,73.5,29.86,South,178,6.0,7.0,67,0.00,,,0.00,Wunderground v.1.15,2013-07-22 16:24:00,
2013-07-22 11:27:00,85.9,73.2,29.86,SSE,161,5.0,8.0,66,0.00,,,0.00,Wunderground v.1.15,2013-07-22 16:27:00,
2013-07-22 11:28:00,85.9,73.2,29.86,SW,219,5.0,8.0,66,0.00,,,0.00,Wunderground v.1.15,2013-07-22 16:28:00,
2013-07-22 11:30:00,86.3,73.1,29.86,SW,234,5.0,5.0,65,0.00,,,0.00,Wunderground v.1.15,2013-07-22 16:30:00,
2013-07-22 11:32:00,86.7,73.5,29.86,SW,230,4.0,6.0,65,0.00,,,0.00,Wunderground v.1.15,2013-07-22 16:32:00,
2013-07-22 11:33:00,87.0,73.8,29.86,South,181,4.0,6.0,65,0.00,,,0.00,Wunderground v.1.15,2013-07-22 16:33:00,
2013-07-22 11:34:00,87.0,73.8,29.86,SSW,199,4.0,8.0,65,0.00,,,0.00,Wunderground v.1.15,2013-07-22 16:34:00,
2013-07-22 11:40:00,86.7,72.6,29.86,South,189,4.0,11.0,63,0.00,,,0.00,Wunderground v.1.15,2013-07-22 16:40:00,
2013-07-22 11:41:00,86.5,72.4,29.86,South,182,4.0,12.0,63,0.00,,,0.00,Wunderground v.1.15,2013-07-22 16:41:00,
2013-07-22 11:42:00,86.5,72.4,29.86,SSE,167,5.0,12.0,63,0.00,,,0.00,Wunderground v.1.15,2013-07-22 16:42:00,
2013-07-22 11:44:00,86.5,73.3,29.86,South,184,5.0,12.0,65,0.00,,,0.00,Wunderground v.1.15,2013-07-22 16:44:00,
2013-07-22 11:46:00,87.0,73.3,29.86,South,181,4.0,12.0,64,0.00,,,0.00,Wunderground v.1.15,2013-07-22 16:46:00,
2013-07-22 11:47:00,87.2,73.1,29.87,SE,134,4.0,12.0,63,0.00,,,0.00,Wunderground v.1.15,2013-07-22 16:47:00,
2013-07-22 11:51:00,87.4,72.8,29.87,South,189,5.0,6.0,62,0.00,,,0.00,Wunderground v.1.15,2013-07-22 16:51:00,
2013-07-22 11:52:00,87.4,73.3,29.87,South,182,4.0,6.0,63,0.00,,,0.00,Wunderground v.1.15,2013-07-22 16:52:00,
2013-07-22 11:53:00,87.2,73.1,29.87,SW,216,5.0,6.0,63,0.00,,,0.00,Wunderground v.1.15,2013-07-22 16:53:00,
2013-07-22 11:55:00,87.2,73.1,29.87,SE,140,6.0,7.0,63,0.00,,,0.00,Wunderground v.1.15,2013-07-22 16:55:00,
2013-07-22 11:56:00,87.0,72.4,29.87,SSE,152,6.0,7.0,62,0.00,,,0.00,Wunderground v.1.15,2013-07-22 16:56:00,
2013-07-22 11:57:00,87.2,73.1,29.87,SW,217,6.0,7.0,63,0.00,,,0.00,Wunderground v.1.15,2013-07-22 16:57:00,
2013-07-22 12:01:00,87.4,73.3,29.87,SSE,151,5.0,6.0,63,0.00,,,0.00,Wunderground v.1.15,2013-07-22 17:01:00,
2013-07-22 12:02:00,87.6,73.4,29.86,SSE,154,5.0,6.0,63,0.00,,,0.00,Wunderground v.1.15,2013-07-22 17:02:00,
2013-07-22 12:06:00,88.4,73.2,29.86,South,181,4.0,11.0,61,0.00,,,0.00,Wunderground v.1.15,2013-07-22 17:06:00,
2013-07-22 12:08:00,88.4,72.7,29.86,South,186,5.0,11.0,60,0.00,,,0.00,Wunderground v.1.15,2013-07-22 17:08:00,
2013-07-22 12:10:00,88.4,72.7,29.86,SSW,213,6.0,11.0,60,0.00,,,0.00,Wunderground v.1.15,2013-07-22 17:10:00,
2013-07-22 12:12:00,88.4,73.2,29.86,SSE,152,6.0,10.0,61,0.00,,,0.00,Wunderground v.1.15,2013-07-22 17:12:00,
2013-07-22 12:14:00,88.4,72.7,29.86,SE,131,7.0,10.0,60,0.00,,,0.00,Wunderground v.1.15,2013-07-22 17:14:00,
2013-07-22 12:18:00,88.6,72.9,29.86,SSW,205,6.0,10.0,60,0.00,,,0.00,Wunderground v.1.15,2013-07-22 17:18:00,
2013-07-22 12:20:00,88.6,72.9,29.86,East,99,6.0,10.0,60,0.00,,,0.00,Wunderground v.1.15,2013-07-22 17:20:00,
2013-07-22 12:23:00,88.4,72.2,29.86,South,175,6.0,7.0,59,0.00,,,0.00,Wunderground v.1.15,2013-07-22 17:23:00,
2013-07-22 12:25:00,88.2,72.6,29.86,SSW,200,6.0,9.0,60,0.00,,,0.00,Wunderground v.1.15,2013-07-22 17:25:00,
2013-07-22 12:26:00,88.0,72.9,29.86,SSW,213,6.0,12.0,61,0.00,,,0.00,Wunderground v.1.15,2013-07-22 17:26:00,
2013-07-22 12:27:00,88.0,72.9,29.86,SW,215,7.0,12.0,61,0.00,,,0.00,Wunderground v.1.15,2013-07-22 17:27:00,
2013-07-22 12:30:00,87.8,72.7,29.86,SW,223,7.0,12.0,61,0.00,,,0.00,Wunderground v.1.15,2013-07-22 17:30:00,
2013-07-22 12:32:00,87.8,71.2,29.85,SE,126,7.0,10.0,58,0.00,,,0.00,Wunderground v.1.15,2013-07-22 17:32:00,
2013-07-22 12:33:00,87.8,71.2,29.85,SSE,150,7.0,11.0,58,0.00,,,0.00,Wunderground v.1.15,2013-07-22 17:33:00,
2013-07-22 12:34:00,88.0,71.4,29.85,SE,141,7.0,14.0,58,0.00,,,0.00,Wunderground v.1.15,2013-07-22 17:34:00,
2013-07-22 12:37:00,88.2,72.1,29.85,SSW,195,7.0,14.0,59,0.00,,,0.00,Wunderground v.1.15,2013-07-22 17:37:00,
2013-07-22 12:38:00,88.4,71.7,29.85,SSE,150,7.0,18.0,58,0.00,,,0.00,Wunderground v.1.15,2013-07-22 17:38:00,
2013-07-22 12:40:00,88.6,71.9,29.85,SSE,157,7.0,7.0,58,0.00,,,0.00,Wunderground v.1.15,2013-07-22 17:40:00,
2013-07-22 12:44:00,89.3,71.5,29.85,SSW,195,6.0,10.0,56,0.00,,,0.00,Wunderground v.1.15,2013-07-22 17:44:00,
2013-07-22 12:45:00,89.3,71.5,29.85,SSW,192,6.0,10.0,56,0.00,,,0.00,Wunderground v.1.15,2013-07-22 17:45:00,
2013-07-22 12:48:00,89.5,72.3,29.85,SSE,164,6.0,10.0,57,0.00,,,0.00,Wunderground v.1.15,2013-07-22 17:48:00,
2013-07-22 12:50:00,89.5,71.7,29.85,SE,134,6.0,6.0,56,0.00,,,0.00,Wunderground v.1.15,2013-07-22 17:50:00,
2013-07-22 12:51:00,89.5,71.7,29.85,SSW,196,5.0,6.0,56,0.00,,,0.00,Wunderground v.1.15,2013-07-22 17:51:00,
2013-07-22 12:52:00,89.7,72.4,29.85,SSW,192,5.0,6.0,57,0.00,,,0.00,Wunderground v.1.15,2013-07-22 17:52:00,
2013-07-22 12:55:00,89.7,71.4,29.85,South,191,6.0,12.0,55,0.00,,,0.00,Wunderground v.1.15,2013-07-22 17:55:00,
2013-07-22 12:58:00,89.5,71.2,29.85,ESE,113,7.0,12.0,55,0.00,,,0.00,Wunderground v.1.15,2013-07-22 17:58:00,
2013-07-22 13:00:00,89.9,71.6,29.85,SE,138,8.0,11.0,55,0.00,,,0.00,Wunderground v.1.15,2013-07-22 18:00:00,
2013-07-22 13:01:00,89.9,71.6,29.85,SSE,147,8.0,11.0,55,0.00,,,0.00,Wunderground v.1.15,2013-07-22 18:01:00,
2013-07-22 13:04:00,89.7,71.9,29.84,SE,126,8.0,13.0,56,0.00,,,0.00,Wunderground v.1.15,2013-07-22 18:04:00,
2013-07-22 13:06:00,89.7,72.4,29.84,SSE,167,7.0,13.0,57,0.00,,,0.00,Wunderground v.1.15,2013-07-22 18:06:00,
2013-07-22 13:10:00,90.1,71.8,29.84,South,175,7.0,7.0,55,0.00,,,0.00,Wunderground v.1.15,2013-07-22 18:10:00,
2013-07-22 13:12:00,90.3,71.4,29.84,WSW,237,6.0,7.0,54,0.00,,,0.00,Wunderground v.1.15,2013-07-22 18:12:00,
2013-07-22 13:17:00,89.5,71.2,29.84,South,176,6.0,13.0,55,0.00,,,0.00,Wunderground v.1.15,2013-07-22 18:17:00,
2013-07-22 13:20:00,89.7,71.9,29.84,SSE,160,5.0,5.0,56,0.00,,,0.00,Wunderground v.1.15,2013-07-22 18:20:00,
2013-07-22 13:23:00,89.9,70.5,29.84,SSE,160,6.0,10.0,53,0.00,,,0.00,Wunderground v.1.15,2013-07-22 18:23:00,
2013-07-22 13:25:00,90.3,71.4,29.84,SSE,154,5.0,10.0,54,0.00,,,0.00,Wunderground v.1.15,2013-07-22 18:25:00,
2013-07-22 13:26:00,90.5,71.6,29.84,SSW,192,5.0,11.0,54,0.00,,,0.00,Wunderground v.1.15,2013-07-22 18:26:00,
2013-07-22 13:32:00,91.2,71.1,29.84,South,179,5.0,10.0,52,0.00,,,0.00,Wunderground v.1.15,2013-07-22 18:32:00,
2013-07-22 13:33:00,91.0,70.9,29.84,SE,128,5.0,10.0,52,0.00,,,0.00,Wunderground v.1.15,2013-07-22 18:33:00,
2013-07-22 13:36:00,90.5,71.0,29.84,South,176,6.0,10.0,53,0.00,,,0.00,Wunderground v.1.15,2013-07-22 18:36:00,
2013-07-22 13:39:00,91.0,70.4,29.84,SE,133,7.0,11.0,51,0.00,,,0.00,Wunderground v.1.15,2013-07-22 18:39:00,
2013-07-22 13:40:00,91.0,70.4,29.84,ESE,120,7.0,7.0,51,0.00,,,0.00,Wunderground v.1.15,2013-07-22 18:40:00,
2013-07-22 13:45:00,91.6,70.3,29.84,SSW,206,7.0,13.0,50,0.00,,,0.00,Wunderground v.1.15,2013-07-22 18:45:00,
2013-07-22 13:48:00,91.4,70.1,29.83,SSE,160,7.0,13.0,50,0.00,,,0.00,Wunderground v.1.15,2013-07-22 18:48:00,
2013-07-22 13:50:00,91.4,70.7,29.83,SE,130,8.0,10.0,51,0.00,,,0.00,Wunderground v.1.15,2013-07-22 18:50:00,
2013-07-22 13:53:00,91.4,70.1,29.83,SSE,157,9.0,11.0,50,0.00,,,0.00,Wunderground v.1.15,2013-07-22 18:53:00,
2013-07-22 13:55:00,91.6,70.9,29.83,SW,223,9.0,11.0,51,0.00,,,0.00,Wunderground v.1.15,2013-07-22 18:55:00,
2013-07-22 13:57:00,91.6,70.3,29.83,WSW,241,9.0,11.0,50,0.00,,,0.00,Wunderground v.1.15,2013-07-22 18:57:00,
2013-07-22 13:58:00,91.8,70.5,29.83,SSW,210,8.0,11.0,50,0.00,,,0.00,Wunderground v.1.15,2013-07-22 18:58:00,
2013-07-22 14:02:00,91.8,69.9,29.82,South,189,9.0,11.0,49,0.00,,,0.00,Wunderground v.1.15,2013-07-22 19:02:00,
2013-07-22 14:04:00,92.1,70.2,29.82,SSE,164,8.0,11.0,49,0.00,,,0.00,Wunderground v.1.15,2013-07-22 19:04:00,
2013-07-22 14:05:00,92.1,70.2,29.82,SW,217,8.0,11.0,49,0.00,,,0.00,Wunderground v.1.15,2013-07-22 19:05:00,
2013-07-22 14:07:00,92.3,69.2,29.82,SSE,152,8.0,11.0,47,0.00,,,0.00,Wunderground v.1.15,2013-07-22 19:07:00,
2013-07-22 14:08:00,92.3,69.2,29.82,SSE,158,8.0,11.0,47,0.00,,,0.00,Wunderground v.1.15,2013-07-22 19:08:00,
2013-07-22 14:14:00,92.3,69.8,29.82,SE,137,8.0,12.0,48,0.00,,,0.00,Wunderground v.1.15,2013-07-22 19:14:00,
2013-07-22 14:16:00,92.3,69.8,29.82,South,169,8.0,12.0,48,0.00,,,0.00,Wunderground v.1.15,2013-07-22 19:16:00,
2013-07-22 14:17:00,92.3,69.8,29.82,SSW,192,8.0,12.0,48,0.00,,,0.00,Wunderground v.1.15,2013-07-22 19:17:00,
2013-07-22 14:18:00,92.3,69.8,29.82,SSW,208,8.0,12.0,48,0.00,,,0.00,Wunderground v.1.15,2013-07-22 19:18:00,
2013-07-22 14:20:00,92.5,69.3,29.82,SW,220,7.0,7.0,47,0.00,,,0.00,Wunderground v.1.15,2013-07-22 19:20:00,
2013-07-22 14:26:00,92.5,69.3,29.82,South,188,7.0,11.0,47,0.00,,,0.00,Wunderground v.1.15,2013-07-22 19:26:00,
2013-07-22 14:27:00,92.5,69.3,29.82,SSW,202,7.0,11.0,47,0.00,,,0.00,Wunderground v.1.15,2013-07-22 19:27:00,
2013-07-22 14:30:00,92.7,68.9,29.82,SSW,196,8.0,8.0,46,0.00,,,0.00,Wunderground v.1.15,2013-07-22 19:30:00,
2013-07-22 14:31:00,92.7,69.5,29.82,SSW,202,7.0,8.0,47,0.00,,,0.00,Wunderground v.1.15,2013-07-22 19:31:00,
2013-07-22 14:34:00,92.9,69.7,29.82,SE,136,6.0,8.0,47,0.00,,,0.00,Wunderground v.1.15,2013-07-22 19:34:00,
2013-07-22 14:35:00,92.9,70.3,29.82,SSW,210,6.0,8.0,48,0.00,,,0.00,Wunderground v.1.15,2013-07-22 19:35:00,
2013-07-22 14:36:00,93.2,70.6,29.82,SSW,193,5.0,8.0,48,0.00,,,0.00,Wunderground v.1.15,2013-07-22 19:36:00,
2013-07-22 14:42:00,93.6,69.7,29.82,SW,223,4.0,5.0,46,0.00,,,0.00,Wunderground v.1.15,2013-07-22 19:42:00,
2013-07-22 14:44:00,93.4,69.5,29.82,SSW,205,5.0,6.0,46,0.00,,,0.00,Wunderground v.1.15,2013-07-22 19:44:00,
2013-07-22 14:45:00,93.4,69.5,29.82,South,189,5.0,6.0,46,0.00,,,0.00,Wunderground v.1.15,2013-07-22 19:45:00,
2013-07-22 14:48:00,93.6,69.7,29.81,SSE,157,5.0,8.0,46,0.00,,,0.00,Wunderground v.1.15,2013-07-22 19:48:00,
2013-07-22 14:49:00,93.8,71.1,29.81,SSE,157,6.0,12.0,48,0.00,,,0.00,Wunderground v.1.15,2013-07-22 19:49:00,
2013-07-22 14:50:00,93.6,69.1,29.81,SE,145,7.0,12.0,45,0.00,,,0.00,Wunderground v.1.15,2013-07-22 19:50:00,
2013-07-22 14:52:00,93.4,69.5,29.81,SSW,203,6.0,12.0,46,0.00,,,0.00,Wunderground v.1.15,2013-07-22 19:52:00,
2013-07-22 14:55:00,93.6,70.3,29.81,SSE,168,6.0,12.0,47,0.00,,,0.00,Wunderground v.1.15,2013-07-22 19:55:00,
2013-07-22 14:59:00,93.6,69.1,29.81,SSW,192,6.0,7.0,45,0.00,,,0.00,Wunderground v.1.15,2013-07-22 19:59:00,
2013-07-22 15:04:00,93.8,69.2,29.80,SSE,168,7.0,11.0,45,0.00,,,0.00,Wunderground v.1.15,2013-07-22 20:04:00,
2013-07-22 15:11:00,93.4,67.6,29.80,SSW,212,7.0,11.0,43,0.00,,,0.00,Wunderground v.1.15,2013-07-22 20:11:00,
2013-07-22 15:12:00,93.4,68.2,29.80,South,186,7.0,11.0,44,0.00,,,0.00,Wunderground v.1.15,2013-07-22 20:12:00,
2013-07-22 15:16:00,93.4,69.5,29.80,SW,222,7.0,11.0,46,0.00,,,0.00,Wunderground v.1.15,2013-07-22 20:16:00,
2013-07-22 15:17:00,93.6,68.4,29.80,SSW,198,7.0,11.0,44,0.00,,,0.00,Wunderground v.1.15,2013-07-22 20:17:00,
2013-07-22 15:19:00,93.6,67.7,29.80,SSW,210,8.0,15.0,43,0.00,,,0.00,Wunderground v.1.15,2013-07-22 20:19:00,
2013-07-22 15:20:00,93.6,67.7,29.80,SSW,206,8.0,18.0,43,0.00,,,0.00,Wunderground v.1.15,2013-07-22 20:20:00,
2013-07-22 15:21:00,93.6,67.1,29.80,SSW,192,8.0,18.0,42,0.00,,,0.00,Wunderground v.1.15,2013-07-22 20:21:00,
2013-07-22 15:22:00,93.6,67.7,29.80,SSW,200,8.0,18.0,43,0.00,,,0.00,Wunderground v.1.15,2013-07-22 20:22:00,
2013-07-22 15:25:00,93.6,68.4,29.80,SSW,202,8.0,18.0,44,0.00,,,0.00,Wunderground v.1.15,2013-07-22 20:25:00,
2013-07-22 15:29:00,93.4,67.6,29.80,SE,137,7.0,7.0,43,0.00,,,0.00,Wunderground v.1.15,2013-07-22 20:29:00,
2013-07-22 15:30:00,93.4,68.2,29.80,SSE,161,7.0,8.0,44,0.00,,,0.00,Wunderground v.1.15,2013-07-22 20:30:00,
2013-07-22 15:32:00,93.6,69.1,29.79,SSW,208,7.0,8.0,45,0.00,,,0.00,Wunderground v.1.15,2013-07-22 20:32:00,
2013-07-22 15:34:00,93.8,68.6,29.79,South,169,7.0,10.0,44,0.00,,,0.00,Wunderground v.1.15,2013-07-22 20:34:00,
2013-07-22 15:35:00,94.0,68.8,29.79,SSE,148,7.0,10.0,44,0.00,,,0.00,Wunderground v.1.15,2013-07-22 20:35:00,
2013-07-22 15:38:00,94.0,68.1,29.79,South,178,8.0,12.0,43,0.00,,,0.00,Wunderground v.1.15,2013-07-22 20:38:00,
2013-07-22 15:40:00,94.0,68.1,29.79,SSW,193,7.0,18.0,43,0.00,,,0.00,Wunderground v.1.15,2013-07-22 20:40:00,
2013-07-22 15:42:00,94.0,68.1,29.79,SSE,167,8.0,18.0,43,0.00,,,0.00,Wunderground v.1.15,2013-07-22 20:42:00,
2013-07-22 15:43:00,94.3,68.4,29.79,SE,145,8.0,18.0,43,0.00,,,0.00,Wunderground v.1.15,2013-07-22 20:43:00,
2013-07-22 15:45:00,94.0,67.4,29.79,South,176,8.0,18.0,42,0.00,,,0.00,Wunderground v.1.15,2013-07-22 20:45:00,
2013-07-22 15:49:00,94.3,67.7,29.80,SSE,161,8.0,18.0,42,0.00,,,0.00,Wunderground v.1.15,2013-07-22 20:49:00,
2013-07-22 15:51:00,94.0,66.7,29.80,SSE,168,7.0,13.0,41,0.00,,,0.00,Wunderground v.1.15,2013-07-22 20:51:00,
2013-07-22 15:52:00,94.0,66.7,29.80,SSW,199,7.0,13.0,41,0.00,,,0.00,Wunderground v.1.15,2013-07-22 20:52:00,
2013-07-22 15:53:00,94.0,66.7,29.80,SSW,202,8.0,13.0,41,0.00,,,0.00,Wunderground v.1.15,2013-07-22 20:53:00,
2013-07-22 15:54:00,94.3,67.0,29.80,South,171,8.0,13.0,41,0.00,,,0.00,Wunderground v.1.15,2013-07-22 20:54:00,
2013-07-22 15:59:00,94.3,67.7,29.80,South,184,7.0,7.0,42,0.00,,,0.00,Wunderground v.1.15,2013-07-22 20:59:00,
2013-07-22 16:00:00,94.3,67.7,29.80,South,176,7.0,7.0,42,0.00,,,0.00,Wunderground v.1.15,2013-07-22 21:00:00,
2013-07-22 16:02:00,94.5,68.5,29.79,SE,126,7.0,7.0,43,0.00,,,0.00,Wunderground v.1.15,2013-07-22 21:02:00,
2013-07-22 16:04:00,94.5,67.2,29.79,South,189,6.0,13.0,41,0.00,,,0.00,Wunderground v.1.15,2013-07-22 21:04:00,
2013-07-22 16:05:00,94.5,66.4,29.79,South,169,6.0,13.0,40,0.00,,,0.00,Wunderground v.1.15,2013-07-22 21:05:00,
2013-07-22 16:07:00,94.7,67.3,29.79,South,191,6.0,13.0,41,0.00,,,0.00,Wunderground v.1.15,2013-07-22 21:07:00,
2013-07-22 16:09:00,94.7,68.0,29.79,South,184,6.0,6.0,42,0.00,,,0.00,Wunderground v.1.15,2013-07-22 21:09:00,
2013-07-22 16:10:00,94.7,68.7,29.79,SSE,162,6.0,9.0,43,0.00,,,0.00,Wunderground v.1.15,2013-07-22 21:10:00,
2013-07-22 16:11:00,94.7,68.7,29.79,SE,141,6.0,9.0,43,0.00,,,0.00,Wunderground v.1.15,2013-07-22 21:11:00,
2013-07-22 16:15:00,93.8,67.9,29.79,SE,130,7.0,12.0,43,0.00,,,0.00,Wunderground v.1.15,2013-07-22 21:15:00,
2013-07-22 16:16:00,93.4,68.2,29.79,SE,144,8.0,12.0,44,0.00,,,0.00,Wunderground v.1.15,2013-07-22 21:16:00,
2013-07-22 16:19:00,93.6,67.7,29.78,SE,141,8.0,8.0,43,0.00,,,0.00,Wunderground v.1.15,2013-07-22 21:19:00,
2013-07-22 16:22:00,93.8,68.6,29.78,SE,145,8.0,9.0,44,0.00,,,0.00,Wunderground v.1.15,2013-07-22 21:22:00,
2013-07-22 16:25:00,94.3,69.7,29.78,SW,234,8.0,9.0,45,0.00,,,0.00,Wunderground v.1.15,2013-07-22 21:25:00,
2013-07-22 16:26:00,94.5,69.2,29.78,SSW,196,7.0,10.0,44,0.00,,,0.00,Wunderground v.1.15,2013-07-22 21:26:00,
2013-07-22 16:27:00,94.5,67.9,29.78,South,169,7.0,10.0,42,0.00,,,0.00,Wunderground v.1.15,2013-07-22 21:27:00,
2013-07-22 16:28:00,94.5,68.5,29.78,South,169,7.0,14.0,43,0.00,,,0.00,Wunderground v.1.15,2013-07-22 21:28:00,
2013-07-22 16:30:00,94.3,68.4,29.78,SE,133,7.0,7.0,43,0.00,,,0.00,Wunderground v.1.15,2013-07-22 21:30:00,
2013-07-22 16:32:00,94.0,67.4,29.77,SE,134,8.0,11.0,42,0.00,,,0.00,Wunderground v.1.15,2013-07-22 21:32:00,
2013-07-22 16:33:00,93.8,67.9,29.77,SE,128,8.0,11.0,43,0.00,,,0.00,Wunderground v.1.15,2013-07-22 21:33:00,
2013-07-22 16:34:00,94.0,68.1,29.77,SSE,150,7.0,11.0,43,0.00,,,0.00,Wunderground v.1.15,2013-07-22 21:34:00,
2013-07-22 16:35:00,94.0,68.8,29.77,SSE,165,8.0,11.0,44,0.00,,,0.00,Wunderground v.1.15,2013-07-22 21:35:00,
2013-07-22 16:36:00,94.3,68.4,29.77,South,172,8.0,11.0,43,0.00,,,0.00,Wunderground v.1.15,2013-07-22 21:36:00,
2013-07-22 16:40:00,94.3,67.7,29.77,SE,145,8.0,16.0,42,0.00,,,0.00,Wunderground v.1.15,2013-07-22 21:40:00,
2013-07-22 16:45:00,93.8,67.2,29.77,SSE,167,9.0,16.0,42,0.00,,,0.00,Wunderground v.1.15,2013-07-22 21:45:00,
2013-07-22 16:46:00,93.8,67.2,29.77,ESE,121,9.0,16.0,42,0.00,,,0.00,Wunderground v.1.15,2013-07-22 21:46:00,
2013-07-22 16:50:00,93.6,67.1,29.77,South,176,8.0,16.0,42,0.00,,,0.00,Wunderground v.1.15,2013-07-22 21:50:00,
2013-07-22 16:51:00,93.6,67.7,29.77,ESE,113,7.0,7.0,43,0.00,,,0.00,Wunderground v.1.15,2013-07-22 21:51:00,
2013-07-22 16:53:00,93.4,67.6,29.77,SE,140,7.0,8.0,43,0.00,,,0.00,Wunderground v.1.15,2013-07-22 21:53:00,
2013-07-22 16:55:00,93.4,67.6,29.77,SE,127,7.0,8.0,43,0.00,,,0.00,Wunderground v.1.15,2013-07-22 21:55:00,
2013-07-22 16:56:00,93.4,66.9,29.77,SE,141,7.0,8.0,42,0.00,,,0.00,Wunderground v.1.15,2013-07-22 21:56:00,
2013-07-22 17:00:00,92.9,67.1,29.77,South,181,8.0,10.0,43,0.00,,,0.00,Wunderground v.1.15,2013-07-22 22:00:00,
2013-07-22 17:03:00,93.2,67.4,29.77,SSE,160,8.0,10.0,43,0.00,,,0.00,Wunderground v.1.15,2013-07-22 22:03:00,
2013-07-22 17:07:00,93.8,67.2,29.77,SSE,151,8.0,11.0,42,0.00,,,0.00,Wunderground v.1.15,2013-07-22 22:07:00,
2013-07-22 17:08:00,93.8,67.2,29.77,SSE,152,8.0,11.0,42,0.00,,,0.00,Wunderground v.1.15,2013-07-22 22:08:00,
2013-07-22 17:10:00,93.6,67.1,29.77,SSE,157,7.0,12.0,42,0.00,,,0.00,Wunderground v.1.15,2013-07-22 22:10:00,
2013-07-22 17:12:00,93.4,66.2,29.77,SE,138,7.0,10.0,41,0.00,,,0.00,Wunderground v.1.15,2013-07-22 22:12:00,
2013-07-22 17:13:00,93.4,66.9,29.77,South,182,7.0,10.0,42,0.00,,,0.00,Wunderground v.1.15,2013-07-22 22:13:00,
2013-07-22 17:15:00,93.8,67.2,29.77,SSE,155,8.0,17.0,42,0.00,,,0.00,Wunderground v.1.15,2013-07-22 22:15:00,
2013-07-22 17:16:00,93.6,66.4,29.77,SE,145,8.0,17.0,41,0.00,,,0.00,Wunderground v.1.15,2013-07-22 22:16:00,
2013-07-22 17:17:00,93.6,67.1,29.77,SE,145,8.0,17.0,42,0.00,,,0.00,Wunderground v.1.15,2013-07-22 22:17:00,
2013-07-22 17:20:00,93.6,67.1,29.77,SSE,168,8.0,17.0,42,0.00,,,0.00,Wunderground v.1.15,2013-07-22 22:20:00,
2013-07-22 17:22:00,93.8,67.9,29.77,SE,130,8.0,8.0,43,0.00,,,0.00,Wunderground v.1.15,2013-07-22 22:22:00,
2013-07-22 17:23:00,93.8,67.2,29.77,SSE,147,7.0,8.0,42,0.00,,,0.00,Wunderground v.1.15,2013-07-22 22:23:00,
2013-07-22 17:27:00,93.6,67.1,29.77,SSW,193,6.0,8.0,42,0.00,,,0.00,Wunderground v.1.15,2013-07-22 22:27:00,
2013-07-22 17:30:00,93.2,66.7,29.77,South,182,5.0,8.0,42,0.00,,,0.00,Wunderground v.1.15,2013-07-22 22:30:00,
2013-07-22 17:33:00,92.9,65.7,29.77,ESE,121,6.0,8.0,41,0.00,,,0.00,Wunderground v.1.15,2013-07-22 22:33:00,
2013-07-22 17:34:00,92.9,66.4,29.77,SE,144,7.0,12.0,42,0.00,,,0.00,Wunderground v.1.15,2013-07-22 22:34:00,
2013-07-22 17:36:00,92.9,67.1,29.77,SE,143,7.0,12.0,43,0.00,,,0.00,Wunderground v.1.15,2013-07-22 22:36:00,
2013-07-22 17:38:00,92.9,67.1,29.77,SE,130,6.0,12.0,43,0.00,,,0.00,Wunderground v.1.15,2013-07-22 22:38:00,
2013-07-22 17:40:00,92.9,67.1,29.77,SSW,200,6.0,12.0,43,0.00,,,0.00,Wunderground v.1.15,2013-07-22 22:40:00,
2013-07-22 17:42:00,92.9,67.1,29.77,SSE,157,6.0,10.0,43,0.00,,,0.00,Wunderground v.1.15,2013-07-22 22:42:00,
2013-07-22 17:43:00,92.9,67.1,29.77,South,186,6.0,10.0,43,0.00,,,0.00,Wunderground v.1.15,2013-07-22 22:43:00,
2013-07-22 17:47:00,92.7,66.9,29.77,SE,134,6.0,10.0,43,0.00,,,0.00,Wunderground v.1.15,2013-07-22 22:47:00,
2013-07-22 17:48:00,92.7,66.9,29.77,SE,140,7.0,10.0,43,0.00,,,0.00,Wunderground v.1.15,2013-07-22 22:48:00,
2013-07-22 17:50:00,92.9,67.1,29.77,South,175,7.0,10.0,43,0.00,,,0.00,Wunderground v.1.15,2013-07-22 22:50:00,
2013-07-22 17:51:00,93.2,66.7,29.77,SSE,158,7.0,7.0,42,0.00,,,0.00,Wunderground v.1.15,2013-07-22 22:51:00,
2013-07-22 17:52:00,93.2,66.7,29.77,SSE,165,7.0,7.0,42,0.00,,,0.00,Wunderground v.1.15,2013-07-22 22:52:00,
2013-07-22 17:56:00,92.9,66.4,29.77,SSE,154,7.0,10.0,42,0.00,,,0.00,Wunderground v.1.15,2013-07-22 22:56:00,
2013-07-22 17:58:00,92.9,67.1,29.77,SE,128,7.0,10.0,43,0.00,,,0.00,Wunderground v.1.15,2013-07-22 22:58:00,
2013-07-22 18:00:00,92.9,67.1,29.77,SE,124,6.0,7.0,43,0.00,,,0.00,Wunderground v.1.15,2013-07-22 23:00:00,
2013-07-22 18:03:00,93.4,66.2,29.76,SSE,160,6.0,17.0,41,0.00,,,0.00,Wunderground v.1.15,2013-07-22 23:03:00,
2013-07-22 18:05:00,93.2,66.0,29.76,SE,145,6.0,17.0,41,0.00,,,0.00,Wunderground v.1.15,2013-07-22 23:05:00,
2013-07-22 18:07:00,93.2,66.0,29.76,SE,137,6.0,17.0,41,0.00,,,0.00,Wunderground v.1.15,2013-07-22 23:07:00,
2013-07-22 18:10:00,92.7,65.6,29.76,ESE,104,8.0,8.0,41,0.00,,,0.00,Wunderground v.1.15,2013-07-22 23:10:00,
2013-07-22 18:11:00,92.7,66.2,29.76,SSW,199,8.0,8.0,42,0.00,,,0.00,Wunderground v.1.15,2013-07-22 23:11:00,
2013-07-22 18:12:00,92.7,66.2,29.76,SE,140,8.0,8.0,42,0.00,,,0.00,Wunderground v.1.15,2013-07-22 23:12:00,
2013-07-22 18:13:00,92.5,66.1,29.76,SE,136,8.0,8.0,42,0.00,,,0.00,Wunderground v.1.15,2013-07-22 23:13:00,
2013-07-22 18:16:00,92.5,66.7,29.76,ESE,123,7.0,11.0,43,0.00,,,0.00,Wunderground v.1.15,2013-07-22 23:16:00,
2013-07-22 18:20:00,92.7,66.9,29.76,SSE,150,7.0,7.0,43,0.00,,,0.00,Wunderground v.1.15,2013-07-22 23:20:00,
2013-07-22 18:21:00,92.7,66.9,29.76,East,99,7.0,12.0,43,0.00,,,0.00,Wunderground v.1.15,2013-07-22 23:21:00,
2013-07-22 18:22:00,92.9,67.1,29.76,SE,143,7.0,12.0,43,0.00,,,0.00,Wunderground v.1.15,2013-07-22 23:22:00,
2013-07-22 18:25:00,93.2,66.7,29.76,SSE,161,6.0,12.0,42,0.00,,,0.00,Wunderground v.1.15,2013-07-22 23:25:00,
2013-07-22 18:27:00,93.2,67.4,29.76,SE,141,6.0,12.0,43,0.00,,,0.00,Wunderground v.1.15,2013-07-22 23:27:00,
2013-07-22 18:28:00,93.2,67.4,29.76,SE,145,6.0,12.0,43,0.00,,,0.00,Wunderground v.1.15,2013-07-22 23:28:00,
2013-07-22 18:32:00,92.9,67.1,29.76,SSE,148,6.0,11.0,43,0.00,,,0.00,Wunderground v.1.15,2013-07-22 23:32:00,
2013-07-22 18:33:00,92.9,67.1,29.76,SE,140,6.0,11.0,43,0.00,,,0.00,Wunderground v.1.15,2013-07-22 23:33:00,
2013-07-22 18:34:00,92.9,67.1,29.76,SE,124,6.0,11.0,43,0.00,,,0.00,Wunderground v.1.15,2013-07-22 23:34:00,
2013-07-22 18:37:00,92.9,66.4,29.76,SE,126,7.0,11.0,42,0.00,,,0.00,Wunderground v.1.15,2013-07-22 23:37:00,
2013-07-22 18:38:00,92.9,66.4,29.76,SSE,151,7.0,11.0,42,0.00,,,0.00,Wunderground v.1.15,2013-07-22 23:38:00,
2013-07-22 18:40:00,92.9,66.4,29.76,SE,127,7.0,9.0,42,0.00,,,0.00,Wunderground v.1.15,2013-07-22 23:40:00,
2013-07-22 18:41:00,92.9,67.1,29.76,ESE,117,7.0,11.0,43,0.00,,,0.00,Wunderground v.1.15,2013-07-22 23:41:00,
2013-07-22 18:43:00,92.7,66.9,29.76,SSE,160,8.0,11.0,43,0.00,,,0.00,Wunderground v.1.15,2013-07-22 23:43:00,
2013-07-22 18:44:00,92.7,66.9,29.76,SE,130,8.0,11.0,43,0.00,,,0.00,Wunderground v.1.15,2013-07-22 23:44:00,
2013-07-22 18:47:00,92.5,66.7,29.76,SSE,165,7.0,11.0,43,0.00,,,0.00,Wunderground v.1.15,2013-07-22 23:47:00,
2013-07-22 18:50:00,92.5,66.7,29.76,SSW,193,7.0,7.0,43,0.00,,,0.00,Wunderground v.1.15,2013-07-22 23:50:00,
2013-07-22 18:51:00,92.5,67.4,29.76,SSW,192,7.0,7.0,44,0.00,,,0.00,Wunderground v.1.15,2013-07-22 23:51:00,
2013-07-22 18:53:00,92.7,67.6,29.76,South,172,7.0,12.0,44,0.00,,,0.00,Wunderground v.1.15,2013-07-22 23:53:00,
2013-07-22 18:54:00,92.7,68.2,29.76,SE,127,7.0,12.0,45,0.00,,,0.00,Wunderground v.1.15,2013-07-22 23:54:00,
2013-07-22 18:56:00,92.5,68.7,29.76,SE,126,7.0,12.0,46,0.00,,,0.00,Wunderground v.1.15,2013-07-22 23:56:00,
2013-07-22 18:58:00,92.3,69.2,29.76,SE,127,7.0,12.0,47,0.00,,,0.00,Wunderground v.1.15,2013-07-22 23:58:00,
2013-07-22 19:00:00,92.1,69.6,29.76,SE,140,7.0,7.0,48,0.00,,,0.00,Wunderground v.1.15,2013-07-23 00:00:00,
2013-07-22 19:02:00,91.8,69.9,29.75,ESE,104,9.0,14.0,49,0.00,,,0.00,Wunderground v.1.15,2013-07-23 00:02:00,
2013-07-22 19:05:00,91.8,69.9,29.75,SSE,148,9.0,14.0,49,0.00,,,0.00,Wunderground v.1.15,2013-07-23 00:05:00,
2013-07-22 19:06:00,91.8,69.3,29.75,SE,131,9.0,14.0,48,0.00,,,0.00,Wunderground v.1.15,2013-07-23 00:06:00,
2013-07-22 19:07:00,91.8,69.3,29.75,SSW,196,8.0,14.0,48,0.00,,,0.00,Wunderground v.1.15,2013-07-23 00:07:00,
2013-07-22 19:10:00,91.6,69.1,29.75,SE,145,8.0,8.0,48,0.00,,,0.00,Wunderground v.1.15,2013-07-23 00:10:00,
2013-07-22 19:11:00,91.6,69.1,29.75,SE,134,8.0,11.0,48,0.00,,,0.00,Wunderground v.1.15,2013-07-23 00:11:00,
2013-07-22 19:13:00,91.4,69.6,29.75,SE,136,8.0,16.0,49,0.00,,,0.00,Wunderground v.1.15,2013-07-23 00:13:00,
2013-07-22 19:15:00,91.4,70.1,29.75,SSW,192,8.0,16.0,50,0.00,,,0.00,Wunderground v.1.15,2013-07-23 00:15:00,
2013-07-22 19:17:00,91.2,70.0,29.76,SE,134,8.0,16.0,50,0.00,,,0.00,Wunderground v.1.15,2013-07-23 00:17:00,
2013-07-22 19:20:00,91.0,69.8,29.76,SE,130,8.0,8.0,50,0.00,,,0.00,Wunderground v.1.15,2013-07-23 00:20:00,
2013-07-22 19:25:00,91.0,70.4,29.76,SSE,150,6.0,8.0,51,0.00,,,0.00,Wunderground v.1.15,2013-07-23 00:25:00,
2013-07-22 19:27:00,91.0,70.4,29.76,ESE,119,6.0,10.0,51,0.00,,,0.00,Wunderground v.1.15,2013-07-23 00:27:00,
2013-07-22 19:28:00,91.0,70.4,29.76,SSE,160,6.0,10.0,51,0.00,,,0.00,Wunderground v.1.15,2013-07-23 00:28:00,
2013-07-22 19:32:00,90.7,70.1,29.76,South,171,8.0,12.0,51,0.00,,,0.00,Wunderground v.1.15,2013-07-23 00:32:00,
2013-07-22 19:33:00,90.7,70.1,29.76,SSE,150,8.0,12.0,51,0.00,,,0.00,Wunderground v.1.15,2013-07-23 00:33:00,
2013-07-22 19:34:00,90.7,70.1,29.76,ESE,116,8.0,12.0,51,0.00,,,0.00,Wunderground v.1.15,2013-07-23 00:34:00,
2013-07-22 19:35:00,90.7,70.1,29.76,SE,138,8.0,12.0,51,0.00,,,0.00,Wunderground v.1.15,2013-07-23 00:35:00,
2013-07-22 19:37:00,90.7,70.1,29.76,SE,130,8.0,12.0,51,0.00,,,0.00,Wunderground v.1.15,2013-07-23 00:37:00,
2013-07-22 19:38:00,90.7,70.1,29.76,SE,144,8.0,12.0,51,0.00,,,0.00,Wunderground v.1.15,2013-07-23 00:38:00,
2013-07-22 19:40:00,90.5,70.5,29.76,SE,137,7.0,7.0,52,0.00,,,0.00,Wunderground v.1.15,2013-07-23 00:40:00,
2013-07-22 19:42:00,90.5,70.5,29.76,SE,140,7.0,8.0,52,0.00,,,0.00,Wunderground v.1.15,2013-07-23 00:42:00,
2013-07-22 19:43:00,90.3,70.3,29.76,SE,134,7.0,9.0,52,0.00,,,0.00,Wunderground v.1.15,2013-07-23 00:43:00,
2013-07-22 19:45:00,90.3,70.3,29.76,SSE,148,8.0,12.0,52,0.00,,,0.00,Wunderground v.1.15,2013-07-23 00:45:00,
2013-07-22 19:48:00,90.1,70.7,29.77,SSE,167,8.0,12.0,53,0.00,,,0.00,Wunderground v.1.15,2013-07-23 00:48:00,
2013-07-22 19:51:00,90.1,70.7,29.77,SSE,160,7.0,10.0,53,0.00,,,0.00,Wunderground v.1.15,2013-07-23 00:51:00,
2013-07-22 19:53:00,90.1,70.7,29.77,ESE,114,7.0,11.0,53,0.00,,,0.00,Wunderground v.1.15,2013-07-23 00:53:00,
2013-07-22 19:54:00,89.9,70.5,29.77,SE,133,7.0,11.0,53,0.00,,,0.00,Wunderground v.1.15,2013-07-23 00:54:00,
2013-07-22 19:56:00,89.9,70.5,29.77,SSE,148,7.0,11.0,53,0.00,,,0.00,Wunderground v.1.15,2013-07-23 00:56:00,
2013-07-22 19:57:00,89.9,71.0,29.77,ESE,110,7.0,11.0,54,0.00,,,0.00,Wunderground v.1.15,2013-07-23 00:57:00,
2013-07-22 20:00:00,89.7,70.8,29.77,ESE,103,8.0,8.0,54,0.00,,,0.00,Wunderground v.1.15,2013-07-23 01:00:00,
2013-07-22 20:02:00,89.7,70.8,29.77,SE,131,8.0,8.0,54,0.00,,,0.00,Wunderground v.1.15,2013-07-23 01:02:00,
2013-07-22 20:03:00,89.5,70.7,29.77,SE,124,9.0,12.0,54,0.00,,,0.00,Wunderground v.1.15,2013-07-23 01:03:00,
2013-07-22 20:07:00,89.5,70.7,29.77,ESE,113,9.0,12.0,54,0.00,,,0.00,Wunderground v.1.15,2013-07-23 01:07:00,
2013-07-22 20:10:00,89.3,71.0,29.77,SE,144,8.0,8.0,55,0.00,,,0.00,Wunderground v.1.15,2013-07-23 01:10:00,
2013-07-22 20:12:00,89.3,71.0,29.77,SE,133,7.0,8.0,55,0.00,,,0.00,Wunderground v.1.15,2013-07-23 01:12:00,
2013-07-22 20:15:00,89.0,70.7,29.77,ESE,110,6.0,11.0,55,0.00,,,0.00,Wunderground v.1.15,2013-07-23 01:15:00,
2013-07-22 20:20:00,88.8,70.5,29.78,South,172,7.0,7.0,55,0.00,,,0.00,Wunderground v.1.15,2013-07-23 01:20:00,
2013-07-22 20:22:00,88.6,70.9,29.78,ESE,119,7.0,13.0,56,0.00,,,0.00,Wunderground v.1.15,2013-07-23 01:22:00,
2013-07-22 20:24:00,88.6,70.9,29.78,SE,127,7.0,13.0,56,0.00,,,0.00,Wunderground v.1.15,2013-07-23 01:24:00,
2013-07-22 20:25:00,88.6,70.9,29.78,SSE,162,7.0,13.0,56,0.00,,,0.00,Wunderground v.1.15,2013-07-23 01:25:00,
2013-07-22 20:26:00,88.6,70.9,29.78,SE,126,7.0,13.0,56,0.00,,,0.00,Wunderground v.1.15,2013-07-23 01:26:00,
2013-07-22 20:30:00,88.4,71.2,29.78,South,181,6.0,7.0,57,0.00,,,0.00,Wunderground v.1.15,2013-07-23 01:30:00,
2013-07-22 20:33:00,88.2,71.0,29.78,SE,145,7.0,10.0,57,0.00,,,0.00,Wunderground v.1.15,2013-07-23 01:33:00,
2013-07-22 20:34:00,88.2,71.6,29.78,SE,134,7.0,10.0,58,0.00,,,0.00,Wunderground v.1.15,2013-07-23 01:34:00,
2013-07-22 20:35:00,88.2,71.6,29.78,ESE,116,7.0,10.0,58,0.00,,,0.00,Wunderground v.1.15,2013-07-23 01:35:00,
2013-07-22 20:38:00,88.0,71.4,29.78,SE,130,8.0,11.0,58,0.00,,,0.00,Wunderground v.1.15,2013-07-23 01:38:00,
2013-07-22 20:40:00,87.8,71.2,29.78,SE,131,9.0,9.0,58,0.00,,,0.00,Wunderground v.1.15,2013-07-23 01:40:00,
2013-07-22 20:41:00,87.8,71.7,29.78,SE,140,8.0,9.0,59,0.00,,,0.00,Wunderground v.1.15,2013-07-23 01:41:00,
2013-07-22 20:43:00,87.8,71.7,29.78,SE,124,8.0,10.0,59,0.00,,,0.00,Wunderground v.1.15,2013-07-23 01:43:00,
2013-07-22 20:46:00,87.6,71.5,29.79,SE,124,7.0,10.0,59,0.00,,,0.00,Wunderground v.1.15,2013-07-23 01:46:00,
2013-07-22 20:48:00,87.6,71.5,29.79,SE,137,7.0,10.0,59,0.00,,,0.00,Wunderground v.1.15,2013-07-23 01:48:00,
2013-07-22 20:50:00,87.6,72.0,29.79,SSE,167,7.0,7.0,60,0.00,,,0.00,Wunderground v.1.15,2013-07-23 01:50:00,
2013-07-22 20:53:00,87.4,71.8,29.79,ESE,121,7.0,11.0,60,0.00,,,0.00,Wunderground v.1.15,2013-07-23 01:53:00,
2013-07-22 20:54:00,87.4,71.8,29.79,SE,133,8.0,11.0,60,0.00,,,0.00,Wunderground v.1.15,2013-07-23 01:54:00,
2013-07-22 20:58:00,87.2,72.1,29.79,ESE,117,8.0,12.0,61,0.00,,,0.00,Wunderground v.1.15,2013-07-23 01:58:00,
2013-07-22 21:00:00,87.0,71.9,29.79,SE,141,8.0,8.0,61,0.00,,,0.00,Wunderground v.1.15,2013-07-23 02:00:00,
2013-07-22 21:02:00,87.0,71.9,29.79,ESE,113,8.0,11.0,61,0.00,,,0.00,Wunderground v.1.15,2013-07-23 02:02:00,
2013-07-22 21:04:00,87.0,71.9,29.79,ESE,121,8.0,11.0,61,0.00,,,0.00,Wunderground v.1.15,2013-07-23 02:04:00,
2013-07-22 21:06:00,86.7,72.1,29.79,SE,127,8.0,12.0,62,0.00,,,0.00,Wunderground v.1.15,2013-07-23 02:06:00,
2013-07-22 21:08:00,86.7,72.1,29.79,SE,130,8.0,12.0,62,0.00,,,0.00,Wunderground v.1.15,2013-07-23 02:08:00,
2013-07-22 21:10:00,86.5,71.9,29.79,SE,128,8.0,8.0,62,0.00,,,0.00,Wunderground v.1.15,2013-07-23 02:10:00,
2013-07-22 21:12:00,86.5,71.9,29.79,SSE,148,8.0,10.0,62,0.00,,,0.00,Wunderground v.1.15,2013-07-23 02:12:00,
2013-07-22 21:13:00,86.5,71.9,29.79,SE,131,8.0,12.0,62,0.00,,,0.00,Wunderground v.1.15,2013-07-23 02:13:00,
2013-07-22 21:17:00,86.3,72.2,29.79,SE,136,8.0,12.0,63,0.00,,,0.00,Wunderground v.1.15,2013-07-23 02:17:00,
2013-07-22 21:21:00,86.1,72.0,29.79,South,178,8.0,14.0,63,0.00,,,0.00,Wunderground v.1.15,2013-07-23 02:21:00,
2013-07-22 21:22:00,86.1,72.0,29.79,SE,136,8.0,14.0,63,0.00,,,0.00,Wunderground v.1.15,2013-07-23 02:22:00,
2013-07-22 21:23:00,86.1,72.0,29.79,SE,127,8.0,14.0,63,0.00,,,0.00,Wunderground v.1.15,2013-07-23 02:23:00,
2013-07-22 21:27:00,86.1,72.5,29.79,SSE,162,8.0,14.0,64,0.00,,,0.00,Wunderground v.1.15,2013-07-23 02:27:00,
2013-07-22 21:30:00,85.9,72.3,29.79,ESE,123,8.0,14.0,64,0.00,,,0.00,Wunderground v.1.15,2013-07-23 02:30:00,
2013-07-22 21:31:00,85.9,72.3,29.79,SSE,165,8.0,15.0,64,0.00,,,0.00,Wunderground v.1.15,2013-07-23 02:31:00,
2013-07-22 21:32:00,85.9,72.8,29.81,SSE,168,8.0,15.0,65,0.00,,,0.00,Wunderground v.1.15,2013-07-23 02:32:00,
2013-07-22 21:33:00,85.7,72.6,29.81,SSE,152,8.0,15.0,65,0.00,,,0.00,Wunderground v.1.15,2013-07-23 02:33:00,
2013-07-22 21:37:00,85.7,72.6,29.81,SSE,158,8.0,15.0,65,0.00,,,0.00,Wunderground v.1.15,2013-07-23 02:37:00,
2013-07-22 21:38:00,85.5,72.4,29.81,SSE,148,8.0,15.0,65,0.00,,,0.00,Wunderground v.1.15,2013-07-23 02:38:00,
2013-07-22 21:40:00,85.5,72.4,29.81,SSE,151,8.0,15.0,65,0.00,,,0.00,Wunderground v.1.15,2013-07-23 02:40:00,
2013-07-22 21:41:00,85.5,72.4,29.81,SE,134,7.0,8.0,65,0.00,,,0.00,Wunderground v.1.15,2013-07-23 02:41:00,
2013-07-22 21:42:00,85.5,72.4,29.81,SSW,193,7.0,10.0,65,0.00,,,0.00,Wunderground v.1.15,2013-07-23 02:42:00,
2013-07-22 21:45:00,85.3,72.2,29.81,SE,127,8.0,13.0,65,0.00,,,0.00,Wunderground v.1.15,2013-07-23 02:45:00,
2013-07-22 21:46:00,85.3,72.6,29.81,SE,137,8.0,13.0,66,0.00,,,0.00,Wunderground v.1.15,2013-07-23 02:46:00,
2013-07-22 21:47:00,85.3,72.6,29.82,SE,134,7.0,13.0,66,0.00,,,0.00,Wunderground v.1.15,2013-07-23 02:47:00,
2013-07-22 21:48:00,85.3,72.6,29.82,SE,143,7.0,13.0,66,0.00,,,0.00,Wunderground v.1.15,2013-07-23 02:48:00,
2013-07-22 21:50:00,85.1,72.5,29.82,SE,141,7.0,7.0,66,0.00,,,0.00,Wunderground v.1.15,2013-07-23 02:50:00,
2013-07-22 21:52:00,85.1,72.5,29.82,SE,127,8.0,10.0,66,0.00,,,0.00,Wunderground v.1.15,2013-07-23 02:52:00,
2013-07-22 21:53:00,84.9,72.3,29.82,SSE,154,8.0,10.0,66,0.00,,,0.00,Wunderground v.1.15,2013-07-23 02:53:00,
2013-07-22 21:57:00,84.9,72.7,29.82,SE,130,9.0,15.0,67,0.00,,,0.00,Wunderground v.1.15,2013-07-23 02:57:00,
2013-07-22 21:58:00,84.7,72.5,29.82,SE,127,9.0,15.0,67,0.00,,,0.00,Wunderground v.1.15,2013-07-23 02:58:00,
2013-07-22 22:00:00,84.7,72.5,29.82,SSE,155,9.0,9.0,67,0.00,,,0.00,Wunderground v.1.15,2013-07-23 03:00:00,
2013-07-22 22:02:00,84.7,72.5,29.82,SE,136,9.0,12.0,67,0.00,,,0.00,Wunderground v.1.15,2013-07-23 03:02:00,
2013-07-22 22:03:00,84.7,72.5,29.82,SE,134,8.0,12.0,67,0.00,,,0.00,Wunderground v.1.15,2013-07-23 03:03:00,
2013-07-22 22:05:00,84.7,72.5,29.82,SE,134,7.0,12.0,67,0.00,,,0.00,Wunderground v.1.15,2013-07-23 03:05:00,
2013-07-22 22:09:00,84.5,72.8,29.82,SE,134,7.0,16.0,68,0.00,,,0.00,Wunderground v.1.15,2013-07-23 03:09:00,
2013-07-22 22:10:00,84.3,73.0,29.82,ESE,113,7.0,8.0,69,0.00,,,0.00,Wunderground v.1.15,2013-07-23 03:10:00,
2013-07-22 22:11:00,84.3,73.0,29.82,SSE,164,7.0,8.0,69,0.00,,,0.00,Wunderground v.1.15,2013-07-23 03:11:00,
2013-07-22 22:18:00,84.0,73.2,29.82,SE,138,8.0,10.0,70,0.00,,,0.00,Wunderground v.1.15,2013-07-23 03:18:00,
2013-07-22 22:20:00,84.0,73.2,29.82,SSE,161,8.0,11.0,70,0.00,,,0.00,Wunderground v.1.15,2013-07-23 03:20:00,
2013-07-22 22:24:00,83.8,73.4,29.82,ESE,104,8.0,10.0,71,0.00,,,0.00,Wunderground v.1.15,2013-07-23 03:24:00,
2013-07-22 22:26:00,83.8,73.4,29.82,ESE,123,7.0,10.0,71,0.00,,,0.00,Wunderground v.1.15,2013-07-23 03:26:00,
2013-07-22 22:27:00,83.6,73.2,29.82,SE,134,7.0,10.0,71,0.00,,,0.00,Wunderground v.1.15,2013-07-23 03:27:00,
2013-07-22 22:31:00,83.4,73.0,29.83,SE,145,7.0,7.0,71,0.00,,,0.00,Wunderground v.1.15,2013-07-23 03:31:00,
2013-07-22 22:32:00,83.4,73.4,29.83,SE,141,6.0,7.0,72,0.00,,,0.00,Wunderground v.1.15,2013-07-23 03:32:00,
2013-07-22 22:34:00,83.4,73.4,29.83,ESE,123,7.0,8.0,72,0.00,,,0.00,Wunderground v.1.15,2013-07-23 03:34:00,
2013-07-22 22:36:00,83.2,73.2,29.83,South,181,7.0,8.0,72,0.00,,,0.00,Wunderground v.1.15,2013-07-23 03:36:00,
2013-07-22 22:37:00,83.2,73.2,29.83,SE,130,6.0,11.0,72,0.00,,,0.00,Wunderground v.1.15,2013-07-23 03:37:00,
2013-07-22 22:38:00,83.2,73.2,29.83,ESE,120,6.0,11.0,72,0.00,,,0.00,Wunderground v.1.15,2013-07-23 03:38:00,
2013-07-22 22:41:00,83.2,73.6,29.83,SE,126,5.0,5.0,73,0.00,,,0.00,Wunderground v.1.15,2013-07-23 03:41:00,
2013-07-22 22:42:00,83.0,73.4,29.83,SE,131,5.0,6.0,73,0.00,,,0.00,Wunderground v.1.15,2013-07-23 03:42:00,
2013-07-22 22:44:00,83.0,73.4,29.83,SE,140,5.0,6.0,73,0.00,,,0.00,Wunderground v.1.15,2013-07-23 03:44:00,
2013-07-22 22:47:00,83.0,73.4,29.84,SE,136,4.0,6.0,73,0.00,,,0.00,Wunderground v.1.15,2013-07-23 03:47:00,
2013-07-22 22:48:00,82.8,73.3,29.84,SSE,147,4.0,7.0,73,0.00,,,0.00,Wunderground v.1.15,2013-07-23 03:48:00,
2013-07-22 22:51:00,82.8,73.7,29.84,ESE,117,4.0,6.0,74,0.00,,,0.00,Wunderground v.1.15,2013-07-23 03:51:00,
2013-07-22 22:52:00,82.8,73.7,29.84,ESE,116,4.0,8.0,74,0.00,,,0.00,Wunderground v.1.15,2013-07-23 03:52:00,
2013-07-22 22:53:00,82.6,73.5,29.84,SE,127,5.0,8.0,74,0.00,,,0.00,Wunderground v.1.15,2013-07-23 03:53:00,
2013-07-22 22:55:00,82.6,73.5,29.84,South,174,6.0,8.0,74,0.00,,,0.00,Wunderground v.1.15,2013-07-23 03:55:00,
2013-07-22 22:56:00,82.6,73.5,29.84,SSE,147,6.0,8.0,74,0.00,,,0.00,Wunderground v.1.15,2013-07-23 03:56:00,
2013-07-22 22:57:00,82.6,73.9,29.84,SE,131,6.0,8.0,75,0.00,,,0.00,Wunderground v.1.15,2013-07-23 03:57:00,
2013-07-22 22:58:00,82.6,73.9,29.84,SE,145,6.0,8.0,75,0.00,,,0.00,Wunderground v.1.15,2013-07-23 03:58:00,
2013-07-22 23:01:00,82.4,73.7,29.84,SE,131,7.0,13.0,75,0.00,,,0.00,Wunderground v.1.15,2013-07-23 04:01:00,
2013-07-22 23:03:00,82.4,73.7,29.84,SE,141,6.0,13.0,75,0.00,,,0.00,Wunderground v.1.15,2013-07-23 04:03:00,
2013-07-22 23:05:00,82.4,73.7,29.84,ESE,117,5.0,13.0,75,0.00,,,0.00,Wunderground v.1.15,2013-07-23 04:05:00,
2013-07-22 23:10:00,82.2,73.5,29.84,SE,144,5.0,10.0,75,0.00,,,0.00,Wunderground v.1.15,2013-07-23 04:10:00,
2013-07-22 23:11:00,82.2,73.5,29.84,SE,141,5.0,10.0,75,0.00,,,0.00,Wunderground v.1.15,2013-07-23 04:11:00,
2013-07-22 23:13:00,82.0,73.3,29.84,SE,140,6.0,10.0,75,0.00,,,0.00,Wunderground v.1.15,2013-07-23 04:13:00,
2013-07-22 23:16:00,82.0,73.3,29.84,SE,124,6.0,10.0,75,0.00,,,0.00,Wunderground v.1.15,2013-07-23 04:16:00,
2013-07-22 23:18:00,82.0,73.7,29.84,SSE,161,6.0,12.0,76,0.00,,,0.00,Wunderground v.1.15,2013-07-23 04:18:00,
2013-07-22 23:20:00,82.0,73.7,29.84,SE,130,7.0,12.0,76,0.00,,,0.00,Wunderground v.1.15,2013-07-23 04:20:00,
2013-07-22 23:21:00,81.8,73.5,29.84,ESE,119,7.0,9.0,76,0.00,,,0.00,Wunderground v.1.15,2013-07-23 04:21:00,
2013-07-22 23:22:00,81.8,73.9,29.84,ESE,109,7.0,13.0,77,0.00,,,0.00,Wunderground v.1.15,2013-07-23 04:22:00,
2013-07-22 23:25:00,81.8,73.9,29.84,ESE,120,7.0,13.0,77,0.00,,,0.00,Wunderground v.1.15,2013-07-23 04:25:00,
2013-07-22 23:26:00,81.8,73.9,29.84,ESE,121,7.0,13.0,77,0.00,,,0.00,Wunderground v.1.15,2013-07-23 04:26:00,
2013-07-22 23:27:00,81.6,73.7,29.84,SE,138,7.0,14.0,77,0.00,,,0.00,Wunderground v.1.15,2013-07-23 04:27:00,
2013-07-22 23:31:00,81.6,74.1,29.84,SE,131,7.0,7.0,78,0.00,,,0.00,Wunderground v.1.15,2013-07-23 04:31:00,
2013-07-22 23:32:00,81.6,74.1,29.85,SE,127,6.0,7.0,78,0.00,,,0.00,Wunderground v.1.15,2013-07-23 04:32:00,
2013-07-22 23:35:00,81.4,73.9,29.85,SE,136,6.0,12.0,78,0.00,,,0.00,Wunderground v.1.15,2013-07-23 04:35:00,
2013-07-22 23:36:00,81.4,73.9,29.85,SE,140,6.0,12.0,78,0.00,,,0.00,Wunderground v.1.15,2013-07-23 04:36:00,
2013-07-22 23:37:00,81.4,73.9,29.85,SE,130,6.0,12.0,78,0.00,,,0.00,Wunderground v.1.15,2013-07-23 04:37:00,
2013-07-22 23:39:00,81.4,74.3,29.85,SSE,167,6.0,12.0,79,0.00,,,0.00,Wunderground v.1.15,2013-07-23 04:39:00,
2013-07-22 23:41:00,81.2,74.1,29.85,SE,134,6.0,6.0,79,0.00,,,0.00,Wunderground v.1.15,2013-07-23 04:41:00,
2013-07-22 23:42:00,81.2,74.1,29.85,SE,133,6.0,7.0,79,0.00,,,0.00,Wunderground v.1.15,2013-07-23 04:42:00,
2013-07-22 23:44:00,81.2,74.1,29.85,SSE,150,7.0,9.0,79,0.00,,,0.00,Wunderground v.1.15,2013-07-23 04:44:00,
2013-07-22 23:45:00,81.2,74.1,29.85,SSE,155,7.0,9.0,79,0.00,,,0.00,Wunderground v.1.15,2013-07-23 04:45:00,
2013-07-22 23:49:00,81.1,74.0,29.85,SE,134,6.0,9.0,79,0.00,,,0.00,Wunderground v.1.15,2013-07-23 04:49:00,
2013-07-22 23:50:00,81.1,74.0,29.85,SSE,150,6.0,6.0,79,0.00,,,0.00,Wunderground v.1.15,2013-07-23 04:50:00,
2013-07-22 23:54:00,81.1,74.0,29.85,SE,126,6.0,8.0,79,0.00,,,0.00,Wunderground v.1.15,2013-07-23 04:54:00,
2013-07-22 23:55:00,81.1,74.0,29.85,ESE,123,6.0,8.0,79,0.00,,,0.00,Wunderground v.1.15,2013-07-23 04:55:00,
2013-07-22 23:57:00,81.1,74.0,29.85,SSE,152,5.0,8.0,79,0.00,,,0.00,Wunderground v.1.15,2013-07-23 04:57:00,